Time,TemperatureF,DewpointF,PressureIn,WindDirection,WindDirectionDegrees,WindSpeedMPH,WindSpeedGustMPH,Humidity,HourlyPrecipIn,Conditions,Clouds,dailyrainin,SoftwareType,DateUTC
2013-04-25 00:00:00,68.2,34.7,30.00,ENE,68,0.0,0.0,29,0.00,,---,0.00,VWS V14.01,2013-04-24 22:00:00,
2013-04-25 00:01:00,68.2,33.9,30.00,ESE,112,0.0,0.0,28,0.00,,---,0.00,VWS V14.01,2013-04-24 22:01:00,
2013-04-25 00:02:00,68.2,33.9,30.00,ESE,112,0.0,0.0,28,0.00,,---,0.00,VWS V14.01,2013-04-24 22:02:00,
2013-04-25 00:03:00,68.0,33.7,30.00,ESE,112,0.0,0.0,28,0.00,,---,0.00,VWS V14.01,2013-04-24 22:03:00,
2013-04-25 00:04:00,67.8,34.4,30.00,ESE,112,0.0,0.0,29,0.00,,---,0.00,VWS V14.01,2013-04-24 22:04:00,
2013-04-25 00:05:00,67.8,34.4,30.00,ENE,68,0.0,0.0,29,0.00,,---,0.00,VWS V14.01,2013-04-24 22:05:00,
2013-04-25 00:06:00,67.8,34.4,30.00,East,90,0.0,0.0,29,0.00,,---,0.00,VWS V14.01,2013-04-24 22:06:00,
2013-04-25 00:07:00,67.8,34.4,30.00,ESE,112,0.0,0.0,29,0.00,,---,0.00,VWS V14.01,2013-04-24 22:07:00,
2013-04-25 00:08:00,67.6,34.3,30.00,ESE,112,0.0,0.0,29,0.00,,---,0.00,VWS V14.01,2013-04-24 22:08:00,
2013-04-25 00:09:00,67.6,34.3,30.00,ESE,112,0.0,0.0,29,0.00,,---,0.00,VWS V14.01,2013-04-24 22:09:00,
2013-04-25 00:10:00,67.5,34.1,30.00,East,90,0.0,0.0,29,0.00,,---,0.00,VWS V14.01,2013-04-24 22:10:00,
2013-04-25 00:11:00,67.5,34.1,30.00,ESE,112,0.0,0.0,29,0.00,,---,0.00,VWS V14.01,2013-04-24 22:11:00,
2013-04-25 00:12:00,67.5,34.1,30.00,ESE,112,0.0,0.0,29,0.00,,---,0.00,VWS V14.01,2013-04-24 22:12:00,
2013-04-25 00:13:00,67.5,34.1,30.00,ESE,112,0.0,0.0,29,0.00,,---,0.00,VWS V14.01,2013-04-24 22:13:00,
2013-04-25 00:14:00,67.3,34.0,30.00,ESE,112,0.0,0.0,29,0.00,,---,0.00,VWS V14.01,2013-04-24 22:14:00,
2013-04-25 00:15:00,67.3,34.0,30.00,ESE,112,0.0,0.0,29,0.00,,---,0.00,VWS V14.01,2013-04-24 22:15:00,
2013-04-25 00:16:00,67.3,34.0,30.00,ESE,112,0.0,0.0,29,0.00,,---,0.00,VWS V14.01,2013-04-24 22:16:00,
2013-04-25 00:17:00,67.1,34.7,30.00,ESE,112,0.0,0.0,30,0.00,,---,0.00,VWS V14.01,2013-04-24 22:17:00,
2013-04-25 00:18:00,67.1,34.7,30.00,ENE,68,0.0,0.0,30,0.00,,---,0.00,VWS V14.01,2013-04-24 22:18:00,
2013-04-25 00:19:00,67.1,34.7,30.00,ESE,112,0.0,0.0,30,0.00,,---,0.00,VWS V14.01,2013-04-24 22:19:00,
2013-04-25 00:20:00,67.1,35.5,30.00,ESE,112,0.0,0.0,31,0.00,,---,0.00,VWS V14.01,2013-04-24 22:20:00,
2013-04-25 00:21:00,66.9,35.3,30.00,ESE,112,0.0,0.0,31,0.00,,---,0.00,VWS V14.01,2013-04-24 22:21:00,
2013-04-25 00:22:00,66.9,35.3,30.00,ESE,112,0.0,0.0,31,0.00,,---,0.00,VWS V14.01,2013-04-24 22:22:00,
2013-04-25 00:23:00,66.9,35.3,30.00,ESE,112,0.0,0.0,31,0.00,,---,0.00,VWS V14.01,2013-04-24 22:23:00,
2013-04-25 00:24:00,66.9,35.3,30.00,ESE,112,0.0,0.0,31,0.00,,---,0.00,VWS V14.01,2013-04-24 22:24:00,
2013-04-25 00:25:00,66.7,36.0,30.00,ESE,112,0.0,0.0,32,0.00,,---,0.00,VWS V14.01,2013-04-24 22:25:00,
2013-04-25 00:26:00,66.7,36.0,30.00,ESE,112,0.0,0.0,32,0.00,,---,0.00,VWS V14.01,2013-04-24 22:26:00,
2013-04-25 00:27:00,66.7,36.0,30.00,ESE,112,0.0,0.0,32,0.00,,---,0.00,VWS V14.01,2013-04-24 22:27:00,
2013-04-25 00:28:00,66.7,36.8,30.00,East,90,0.0,0.0,33,0.00,,---,0.00,VWS V14.01,2013-04-24 22:28:00,
2013-04-25 00:29:00,66.6,36.6,30.00,ESE,112,0.0,0.0,33,0.00,,---,0.00,VWS V14.01,2013-04-24 22:29:00,
2013-04-25 00:30:00,66.6,36.6,30.00,ESE,112,0.0,0.0,33,0.00,,---,0.00,VWS V14.01,2013-04-24 22:30:00,
2013-04-25 00:31:00,66.4,36.4,30.00,ESE,112,0.0,0.0,33,0.00,,---,0.00,VWS V14.01,2013-04-24 22:31:00,
2013-04-25 00:32:00,66.4,36.4,30.00,ESE,112,0.0,0.0,33,0.00,,---,0.00,VWS V14.01,2013-04-24 22:32:00,
2013-04-25 00:33:00,66.2,36.3,30.00,ESE,112,0.0,0.0,33,0.00,,---,0.00,VWS V14.01,2013-04-24 22:33:00,
2013-04-25 00:34:00,66.2,36.3,30.00,ESE,112,0.0,0.0,33,0.00,,---,0.00,VWS V14.01,2013-04-24 22:34:00,
2013-04-25 00:35:00,66.0,36.9,30.00,ESE,112,0.0,0.0,34,0.00,,---,0.00,VWS V14.01,2013-04-24 22:35:00,
2013-04-25 00:36:00,66.0,36.9,30.00,ESE,112,0.0,0.0,34,0.00,,---,0.00,VWS V14.01,2013-04-24 22:36:00,
2013-04-25 00:37:00,66.0,36.9,30.00,ESE,112,0.0,0.0,34,0.00,,---,0.00,VWS V14.01,2013-04-24 22:37:00,
2013-04-25 00:38:00,65.8,36.7,30.00,ESE,112,0.0,0.0,34,0.00,,---,0.00,VWS V14.01,2013-04-24 22:38:00,
2013-04-25 00:39:00,65.8,36.7,30.00,ESE,112,0.0,0.0,34,0.00,,---,0.00,VWS V14.01,2013-04-24 22:39:00,
2013-04-25 00:40:00,65.7,36.6,30.00,ESE,112,0.0,0.0,34,0.00,,---,0.00,VWS V14.01,2013-04-24 22:40:00,
2013-04-25 00:41:00,65.7,36.6,30.00,ESE,112,0.0,0.0,34,0.00,,---,0.00,VWS V14.01,2013-04-24 22:41:00,
2013-04-25 00:42:00,65.7,36.6,30.00,ENE,68,0.0,0.0,34,0.00,,---,0.00,VWS V14.01,2013-04-24 22:42:00,
2013-04-25 00:43:00,65.7,37.3,30.00,East,90,0.0,0.0,35,0.00,,---,0.00,VWS V14.01,2013-04-24 22:43:00,
2013-04-25 00:44:00,65.7,37.3,30.00,ESE,112,0.0,0.0,35,0.00,,---,0.00,VWS V14.01,2013-04-24 22:44:00,
2013-04-25 00:45:00,65.7,37.3,30.00,ENE,68,0.0,0.0,35,0.00,,---,0.00,VWS V14.01,2013-04-24 22:45:00,
2013-04-25 00:46:00,65.7,37.3,30.00,ESE,112,0.0,0.0,35,0.00,,---,0.00,VWS V14.01,2013-04-24 22:46:00,
2013-04-25 00:47:00,65.7,37.3,30.00,ESE,112,0.0,0.0,35,0.00,,---,0.00,VWS V14.01,2013-04-24 22:47:00,
2013-04-25 00:48:00,65.7,37.3,30.00,ESE,112,0.0,0.0,35,0.00,,---,0.00,VWS V14.01,2013-04-24 22:48:00,
2013-04-25 00:49:00,65.7,37.3,30.00,ESE,112,0.0,0.0,35,0.00,,---,0.00,VWS V14.01,2013-04-24 22:49:00,
2013-04-25 00:50:00,65.8,37.5,30.00,ESE,112,0.0,0.0,35,0.00,,---,0.00,VWS V14.01,2013-04-24 22:50:00,
2013-04-25 00:51:00,65.8,37.5,30.00,ENE,68,0.0,0.0,35,0.00,,---,0.00,VWS V14.01,2013-04-24 22:51:00,
2013-04-25 00:52:00,65.8,37.5,30.00,ESE,112,0.0,0.0,35,0.00,,---,0.00,VWS V14.01,2013-04-24 22:52:00,
2013-04-25 00:53:00,65.8,37.5,30.00,ENE,68,0.0,0.0,35,0.00,,---,0.00,VWS V14.01,2013-04-24 22:53:00,
2013-04-25 00:54:00,65.8,37.5,30.00,ENE,68,0.0,0.0,35,0.00,,---,0.00,VWS V14.01,2013-04-24 22:54:00,
2013-04-25 00:55:00,66.2,37.0,30.00,ESE,112,0.0,0.0,34,0.00,,---,0.00,VWS V14.01,2013-04-24 22:55:00,
2013-04-25 00:56:00,66.2,37.0,30.00,East,90,0.0,0.0,34,0.00,,---,0.00,VWS V14.01,2013-04-24 22:56:00,
2013-04-25 00:57:00,66.2,37.0,30.00,ENE,68,0.0,0.0,34,0.00,,---,0.00,VWS V14.01,2013-04-24 22:57:00,
2013-04-25 00:58:00,66.2,37.0,30.00,East,90,0.0,0.0,34,0.00,,---,0.00,VWS V14.01,2013-04-24 22:58:00,
2013-04-25 00:59:00,66.2,37.0,30.00,East,90,0.0,0.0,34,0.00,,---,0.00,VWS V14.01,2013-04-24 22:59:00,
2013-04-25 01:00:00,66.4,37.2,30.00,ENE,68,0.0,0.0,34,0.00,,---,0.00,VWS V14.01,2013-04-24 23:00:00,
2013-04-25 01:01:00,66.4,36.4,30.00,ENE,68,0.0,0.0,33,0.00,,---,0.00,VWS V14.01,2013-04-24 23:01:00,
2013-04-25 01:02:00,66.4,36.4,30.00,East,90,0.0,0.0,33,0.00,,---,0.00,VWS V14.01,2013-04-24 23:02:00,
2013-04-25 01:03:00,66.2,36.3,30.00,ENE,68,0.0,0.0,33,0.00,,---,0.00,VWS V14.01,2013-04-24 23:03:00,
2013-04-25 01:04:00,66.2,36.3,30.00,NNE,22,0.0,0.0,33,0.00,,---,0.00,VWS V14.01,2013-04-24 23:04:00,
2013-04-25 01:05:00,66.2,36.3,30.00,ENE,68,0.0,0.0,33,0.00,,---,0.00,VWS V14.01,2013-04-24 23:05:00,
2013-04-25 01:06:00,66.2,36.3,30.00,NNE,22,0.0,0.0,33,0.00,,---,0.00,VWS V14.01,2013-04-24 23:06:00,
2013-04-25 01:07:00,66.2,36.3,30.00,ENE,68,0.0,0.0,33,0.00,,---,0.00,VWS V14.01,2013-04-24 23:07:00,
2013-04-25 01:08:00,66.2,36.3,30.00,ENE,68,0.0,0.0,33,0.00,,---,0.00,VWS V14.01,2013-04-24 23:08:00,
2013-04-25 01:09:00,66.2,36.3,30.00,East,90,0.0,0.0,33,0.00,,---,0.00,VWS V14.01,2013-04-24 23:09:00,
2013-04-25 01:10:00,66.0,36.9,30.00,ENE,68,0.0,0.0,34,0.00,,---,0.00,VWS V14.01,2013-04-24 23:10:00,
2013-04-25 01:11:00,66.0,36.9,30.00,ENE,68,0.0,0.0,34,0.00,,---,0.00,VWS V14.01,2013-04-24 23:11:00,
2013-04-25 01:12:00,65.8,36.7,30.00,ENE,68,0.0,0.0,34,0.00,,---,0.00,VWS V14.01,2013-04-24 23:12:00,
2013-04-25 01:13:00,65.8,36.7,30.00,ENE,68,0.0,0.0,34,0.00,,---,0.00,VWS V14.01,2013-04-24 23:13:00,
2013-04-25 01:14:00,65.7,36.6,30.00,ENE,68,0.0,0.0,34,0.00,,---,0.00,VWS V14.01,2013-04-24 23:14:00,
2013-04-25 01:15:00,65.7,36.6,30.00,ENE,68,0.0,0.0,34,0.00,,---,0.00,VWS V14.01,2013-04-24 23:15:00,
2013-04-25 01:16:00,65.5,36.4,30.00,ENE,68,0.0,0.0,34,0.00,,---,0.00,VWS V14.01,2013-04-24 23:16:00,
2013-04-25 01:17:00,65.5,36.4,30.00,ENE,68,0.0,0.0,34,0.00,,---,0.00,VWS V14.01,2013-04-24 23:17:00,
2013-04-25 01:18:00,65.3,36.2,30.00,NNE,22,0.0,0.0,34,0.00,,---,0.00,VWS V14.01,2013-04-24 23:18:00,
2013-04-25 01:19:00,65.3,36.2,30.00,NNE,22,0.0,0.0,34,0.00,,---,0.00,VWS V14.01,2013-04-24 23:19:00,
2013-04-25 01:20:00,65.1,36.1,30.00,ENE,68,0.0,0.0,34,0.00,,---,0.00,VWS V14.01,2013-04-24 23:20:00,
2013-04-25 01:21:00,65.1,36.1,30.00,North,0,0.0,0.0,34,0.00,,---,0.00,VWS V14.01,2013-04-24 23:21:00,
2013-04-25 01:22:00,65.1,36.1,30.00,NNW,338,0.0,0.0,34,0.00,,---,0.00,VWS V14.01,2013-04-24 23:22:00,
2013-04-25 01:23:00,65.1,36.1,30.00,NNW,338,0.0,0.0,34,0.00,,---,0.00,VWS V14.01,2013-04-24 23:23:00,
2013-04-25 01:24:00,64.9,35.9,30.00,NNW,338,0.0,0.0,34,0.00,,---,0.00,VWS V14.01,2013-04-24 23:24:00,
2013-04-25 01:25:00,64.9,35.9,30.00,North,0,0.0,0.0,34,0.00,,---,0.00,VWS V14.01,2013-04-24 23:25:00,
2013-04-25 01:26:00,64.8,36.5,30.00,NNW,338,0.0,0.0,35,0.00,,---,0.00,VWS V14.01,2013-04-24 23:26:00,
2013-04-25 01:27:00,64.6,36.3,30.00,North,0,0.0,0.0,35,0.00,,---,0.00,VWS V14.01,2013-04-24 23:27:00,
2013-04-25 01:28:00,64.6,36.3,30.00,ENE,68,0.0,0.0,35,0.00,,---,0.00,VWS V14.01,2013-04-24 23:28:00,
2013-04-25 01:29:00,64.6,36.3,30.00,NNW,338,0.0,0.0,35,0.00,,---,0.00,VWS V14.01,2013-04-24 23:29:00,
2013-04-25 01:30:00,64.4,36.2,30.00,North,0,0.0,0.0,35,0.00,,---,0.00,VWS V14.01,2013-04-24 23:30:00,
2013-04-25 01:31:00,64.4,36.2,30.00,NNW,338,0.0,0.0,35,0.00,,---,0.00,VWS V14.01,2013-04-24 23:31:00,
2013-04-25 01:32:00,64.4,36.2,30.00,NNW,338,0.0,0.0,35,0.00,,---,0.00,VWS V14.01,2013-04-24 23:32:00,
2013-04-25 01:33:00,64.4,36.9,30.00,NNW,338,0.0,0.0,36,0.00,,---,0.00,VWS V14.01,2013-04-24 23:33:00,
2013-04-25 01:34:00,64.2,36.7,30.00,NNE,22,0.0,0.0,36,0.00,,---,0.00,VWS V14.01,2013-04-24 23:34:00,
2013-04-25 01:35:00,64.2,36.7,30.00,NNE,22,0.0,0.0,36,0.00,,---,0.00,VWS V14.01,2013-04-24 23:35:00,
2013-04-25 01:36:00,64.2,37.4,30.00,NNE,22,0.0,0.0,37,0.00,,---,0.00,VWS V14.01,2013-04-24 23:36:00,
2013-04-25 01:37:00,64.2,36.7,30.00,NNE,22,0.0,0.0,36,0.00,,---,0.00,VWS V14.01,2013-04-24 23:37:00,
2013-04-25 01:38:00,64.2,37.4,30.00,NNE,22,0.0,0.0,37,0.00,,---,0.00,VWS V14.01,2013-04-24 23:38:00,
2013-04-25 01:39:00,64.2,37.4,30.00,NNE,22,0.0,0.0,37,0.00,,---,0.00,VWS V14.01,2013-04-24 23:39:00,
2013-04-25 01:40:00,64.2,37.4,30.00,NE,45,0.0,0.0,37,0.00,,---,0.00,VWS V14.01,2013-04-24 23:40:00,
2013-04-25 01:41:00,64.0,37.3,30.00,North,0,0.0,0.0,37,0.00,,---,0.00,VWS V14.01,2013-04-24 23:41:00,
2013-04-25 01:42:00,64.0,37.3,30.00,ENE,68,0.0,0.0,37,0.00,,---,0.00,VWS V14.01,2013-04-24 23:42:00,
2013-04-25 01:43:00,64.0,37.3,30.00,NNE,22,0.0,0.0,37,0.00,,---,0.00,VWS V14.01,2013-04-24 23:43:00,
2013-04-25 01:44:00,64.0,37.3,30.00,NNE,22,0.0,0.0,37,0.00,,---,0.00,VWS V14.01,2013-04-24 23:44:00,
2013-04-25 01:45:00,64.0,37.3,30.00,NE,45,0.0,0.0,37,0.00,,---,0.00,VWS V14.01,2013-04-24 23:45:00,
2013-04-25 01:46:00,64.0,37.3,30.00,ENE,68,0.0,0.0,37,0.00,,---,0.00,VWS V14.01,2013-04-24 23:46:00,
2013-04-25 01:47:00,63.9,37.1,30.00,ENE,68,0.0,0.0,37,0.00,,---,0.00,VWS V14.01,2013-04-24 23:47:00,
2013-04-25 01:48:00,63.9,37.1,30.00,ENE,68,0.0,0.0,37,0.00,,---,0.00,VWS V14.01,2013-04-24 23:48:00,
2013-04-25 01:49:00,63.9,37.1,30.00,ENE,68,0.0,0.0,37,0.00,,---,0.00,VWS V14.01,2013-04-24 23:49:00,
2013-04-25 01:50:00,63.9,37.1,30.00,North,0,0.0,0.0,37,0.00,,---,0.00,VWS V14.01,2013-04-24 23:50:00,
2013-04-25 01:51:00,63.9,37.1,30.00,NNW,338,0.0,0.0,37,0.00,,---,0.00,VWS V14.01,2013-04-24 23:51:00,
2013-04-25 01:52:00,63.9,37.8,30.00,NNW,338,0.0,0.0,38,0.00,,---,0.00,VWS V14.01,2013-04-24 23:52:00,
2013-04-25 01:53:00,63.9,37.8,30.00,ENE,68,0.0,0.0,38,0.00,,---,0.00,VWS V14.01,2013-04-24 23:53:00,
2013-04-25 01:54:00,63.9,37.8,30.00,NNE,22,0.0,0.0,38,0.00,,---,0.00,VWS V14.01,2013-04-24 23:54:00,
2013-04-25 01:55:00,63.9,37.8,30.00,NNE,22,0.0,0.0,38,0.00,,---,0.00,VWS V14.01,2013-04-24 23:55:00,
2013-04-25 01:56:00,64.0,37.9,30.00,NNW,338,0.0,0.0,38,0.00,,---,0.00,VWS V14.01,2013-04-24 23:56:00,
2013-04-25 01:57:00,64.0,38.6,30.00,North,0,0.0,0.0,39,0.00,,---,0.00,VWS V14.01,2013-04-24 23:57:00,
2013-04-25 01:58:00,64.0,38.6,30.00,NNW,338,0.0,0.0,39,0.00,,---,0.00,VWS V14.01,2013-04-24 23:58:00,
2013-04-25 01:59:00,63.9,38.5,30.00,North,0,0.0,0.0,39,0.00,,---,0.00,VWS V14.01,2013-04-24 23:59:00,
2013-04-25 02:00:00,63.9,38.5,30.00,NNW,338,0.0,0.0,39,0.00,,---,0.00,VWS V14.01,2013-04-25 00:00:00,
2013-04-25 02:01:00,63.9,38.5,30.00,North,0,0.0,0.0,39,0.00,,---,0.00,VWS V14.01,2013-04-25 00:01:00,
2013-04-25 02:02:00,63.9,38.5,30.00,NNE,22,0.0,0.0,39,0.00,,---,0.00,VWS V14.01,2013-04-25 00:02:00,
2013-04-25 02:03:00,63.9,38.5,30.00,North,0,0.0,0.0,39,0.00,,---,0.00,VWS V14.01,2013-04-25 00:03:00,
2013-04-25 02:04:00,63.7,38.3,30.00,NNE,22,0.0,0.0,39,0.00,,---,0.00,VWS V14.01,2013-04-25 00:04:00,
2013-04-25 02:05:00,63.7,38.3,30.00,NNE,22,0.0,0.0,39,0.00,,---,0.00,VWS V14.01,2013-04-25 00:05:00,
2013-04-25 02:06:00,63.7,38.3,30.00,North,0,0.0,0.0,39,0.00,,---,0.00,VWS V14.01,2013-04-25 00:06:00,
2013-04-25 02:07:00,63.7,38.3,30.00,NNW,338,0.0,0.0,39,0.00,,---,0.00,VWS V14.01,2013-04-25 00:07:00,
2013-04-25 02:08:00,63.7,38.3,30.00,NNW,338,0.0,0.0,39,0.00,,---,0.00,VWS V14.01,2013-04-25 00:08:00,
2013-04-25 02:09:00,63.9,39.1,30.00,NNW,338,0.0,0.0,40,0.00,,---,0.00,VWS V14.01,2013-04-25 00:09:00,
2013-04-25 02:10:00,63.9,39.1,30.00,NNW,338,0.0,0.0,40,0.00,,---,0.00,VWS V14.01,2013-04-25 00:10:00,
2013-04-25 02:11:00,63.9,39.7,30.00,NNW,338,0.0,0.0,41,0.00,,---,0.00,VWS V14.01,2013-04-25 00:11:00,
2013-04-25 02:12:00,63.9,39.7,30.00,NNW,338,0.0,0.0,41,0.00,,---,0.00,VWS V14.01,2013-04-25 00:12:00,
2013-04-25 02:13:00,63.9,39.7,30.00,NNW,338,0.0,0.0,41,0.00,,---,0.00,VWS V14.01,2013-04-25 00:13:00,
2013-04-25 02:14:00,63.7,38.9,30.00,NNW,338,0.0,0.0,40,0.00,,---,0.00,VWS V14.01,2013-04-25 00:14:00,
2013-04-25 02:15:00,63.7,38.9,30.00,NNW,338,0.0,0.0,40,0.00,,---,0.00,VWS V14.01,2013-04-25 00:15:00,
2013-04-25 02:16:00,63.7,38.9,30.00,NNW,338,0.0,0.0,40,0.00,,---,0.00,VWS V14.01,2013-04-25 00:16:00,
2013-04-25 02:17:00,63.5,38.8,30.00,NNW,338,0.0,0.0,40,0.00,,---,0.00,VWS V14.01,2013-04-25 00:17:00,
2013-04-25 02:18:00,63.5,38.8,30.00,NNW,338,0.0,0.0,40,0.00,,---,0.00,VWS V14.01,2013-04-25 00:18:00,
2013-04-25 02:19:00,63.5,38.8,30.00,NNW,338,0.0,0.0,40,0.00,,---,0.00,VWS V14.01,2013-04-25 00:19:00,
2013-04-25 02:20:00,63.7,38.9,30.00,NNE,22,0.0,0.0,40,0.00,,---,0.00,VWS V14.01,2013-04-25 00:20:00,
2013-04-25 02:21:00,63.7,38.9,30.00,NNW,338,0.0,0.0,40,0.00,,---,0.00,VWS V14.01,2013-04-25 00:21:00,
2013-04-25 02:22:00,63.9,39.7,30.00,NNE,22,0.0,0.0,41,0.00,,---,0.00,VWS V14.01,2013-04-25 00:22:00,
2013-04-25 02:23:00,63.9,39.7,30.00,NNE,22,0.0,0.0,41,0.00,,---,0.00,VWS V14.01,2013-04-25 00:23:00,
2013-04-25 02:24:00,63.9,39.7,30.00,NNW,338,0.0,0.0,41,0.00,,---,0.00,VWS V14.01,2013-04-25 00:24:00,
2013-04-25 02:25:00,64.2,40.0,30.00,NNW,338,0.0,0.0,41,0.00,,---,0.00,VWS V14.01,2013-04-25 00:25:00,
2013-04-25 02:26:00,64.4,40.2,30.00,NNE,22,0.0,0.0,41,0.00,,---,0.00,VWS V14.01,2013-04-25 00:26:00,
2013-04-25 02:27:00,64.6,40.4,30.00,NNW,338,0.0,0.0,41,0.00,,---,0.00,VWS V14.01,2013-04-25 00:27:00,
2013-04-25 02:28:00,64.6,40.4,30.00,NNE,22,0.0,0.0,41,0.00,,---,0.00,VWS V14.01,2013-04-25 00:28:00,
2013-04-25 02:29:00,64.6,40.4,30.00,NNW,338,0.0,0.0,41,0.00,,---,0.00,VWS V14.01,2013-04-25 00:29:00,
2013-04-25 02:30:00,64.6,40.4,30.00,NNW,338,0.0,0.0,41,0.00,,---,0.00,VWS V14.01,2013-04-25 00:30:00,
2013-04-25 02:31:00,64.6,40.4,30.00,NNW,338,0.0,0.0,41,0.00,,---,0.00,VWS V14.01,2013-04-25 00:31:00,
2013-04-25 02:32:00,64.6,40.4,30.00,NNW,338,0.0,0.0,41,0.00,,---,0.00,VWS V14.01,2013-04-25 00:32:00,
2013-04-25 02:33:00,64.4,40.2,30.00,NNW,338,0.0,0.0,41,0.00,,---,0.00,VWS V14.01,2013-04-25 00:33:00,
2013-04-25 02:34:00,64.6,40.4,30.00,NNW,338,0.0,0.0,41,0.00,,---,0.00,VWS V14.01,2013-04-25 00:34:00,
2013-04-25 02:35:00,64.4,40.2,30.00,NNW,338,0.0,0.0,41,0.00,,---,0.00,VWS V14.01,2013-04-25 00:35:00,
2013-04-25 02:36:00,64.4,40.2,30.00,NNW,338,0.0,0.0,41,0.00,,---,0.00,VWS V14.01,2013-04-25 00:36:00,
2013-04-25 02:37:00,64.4,40.2,30.00,NNW,338,0.0,0.0,41,0.00,,---,0.00,VWS V14.01,2013-04-25 00:37:00,
2013-04-25 02:38:00,64.6,40.4,30.00,NNE,22,0.0,0.0,41,0.00,,---,0.00,VWS V14.01,2013-04-25 00:38:00,
2013-04-25 02:39:00,64.6,40.4,30.00,NNE,22,0.0,0.0,41,0.00,,---,0.00,VWS V14.01,2013-04-25 00:39:00,
2013-04-25 02:40:00,64.6,40.4,29.97,ENE,68,0.0,0.0,41,0.00,,---,0.00,VWS V14.01,2013-04-25 00:40:00,
2013-04-25 02:41:00,64.6,39.7,29.97,ENE,68,0.0,0.0,40,0.00,,---,0.00,VWS V14.01,2013-04-25 00:41:00,
2013-04-25 02:42:00,64.4,39.6,29.97,ENE,68,0.0,0.0,40,0.00,,---,0.00,VWS V14.01,2013-04-25 00:42:00,
2013-04-25 02:43:00,64.4,39.6,29.97,ENE,68,0.0,0.0,40,0.00,,---,0.00,VWS V14.01,2013-04-25 00:43:00,
2013-04-25 02:44:00,64.4,39.6,29.97,ENE,68,0.0,0.0,40,0.00,,---,0.00,VWS V14.01,2013-04-25 00:44:00,
2013-04-25 02:45:00,64.6,39.7,29.97,North,0,0.0,0.0,40,0.00,,---,0.00,VWS V14.01,2013-04-25 00:45:00,
2013-04-25 02:46:00,64.8,40.5,29.97,NNE,22,0.0,0.0,41,0.00,,---,0.00,VWS V14.01,2013-04-25 00:46:00,
2013-04-25 02:47:00,64.8,40.5,29.97,NNW,338,0.0,0.0,41,0.00,,---,0.00,VWS V14.01,2013-04-25 00:47:00,
2013-04-25 02:48:00,64.9,40.7,29.97,NNW,338,0.0,0.0,41,0.00,,---,0.00,VWS V14.01,2013-04-25 00:48:00,
2013-04-25 02:49:00,65.1,40.9,29.97,ENE,68,0.0,0.0,41,0.00,,---,0.00,VWS V14.01,2013-04-25 00:49:00,
2013-04-25 02:50:00,65.3,41.0,29.97,North,0,0.0,0.0,41,0.00,,---,0.00,VWS V14.01,2013-04-25 00:50:00,
2013-04-25 02:51:00,65.3,41.0,29.97,North,0,0.0,0.0,41,0.00,,---,0.00,VWS V14.01,2013-04-25 00:51:00,
2013-04-25 02:52:00,65.1,40.2,29.97,North,0,0.0,0.0,40,0.00,,---,0.00,VWS V14.01,2013-04-25 00:52:00,
2013-04-25 02:53:00,65.1,40.2,29.97,NNW,338,0.0,0.0,40,0.00,,---,0.00,VWS V14.01,2013-04-25 00:53:00,
2013-04-25 02:54:00,65.1,40.2,29.97,NNE,22,0.0,0.0,40,0.00,,---,0.00,VWS V14.01,2013-04-25 00:54:00,
2013-04-25 02:55:00,65.3,40.4,29.97,NNE,22,0.0,0.0,40,0.00,,---,0.00,VWS V14.01,2013-04-25 00:55:00,
2013-04-25 02:56:00,65.3,40.4,29.97,North,0,0.0,0.0,40,0.00,,---,0.00,VWS V14.01,2013-04-25 00:56:00,
2013-04-25 02:57:00,65.3,40.4,29.97,NNW,338,0.0,0.0,40,0.00,,---,0.00,VWS V14.01,2013-04-25 00:57:00,
2013-04-25 02:58:00,65.1,40.2,29.97,North,0,0.0,0.0,40,0.00,,---,0.00,VWS V14.01,2013-04-25 00:58:00,
2013-04-25 02:59:00,65.1,40.2,29.97,NNW,338,0.0,0.0,40,0.00,,---,0.00,VWS V14.01,2013-04-25 00:59:00,
2013-04-25 03:00:00,65.1,40.2,29.97,North,0,0.0,0.0,40,0.00,,---,0.00,VWS V14.01,2013-04-25 01:00:00,
2013-04-25 03:01:00,65.1,40.2,29.97,NNW,338,0.0,0.0,40,0.00,,---,0.00,VWS V14.01,2013-04-25 01:01:00,
2013-04-25 03:02:00,65.1,39.6,29.97,NNW,338,0.0,0.0,39,0.00,,---,0.00,VWS V14.01,2013-04-25 01:02:00,
2013-04-25 03:03:00,65.1,39.6,29.97,NNE,22,0.0,0.0,39,0.00,,---,0.00,VWS V14.01,2013-04-25 01:03:00,
2013-04-25 03:04:00,65.1,39.6,29.97,North,0,0.0,0.0,39,0.00,,---,0.00,VWS V14.01,2013-04-25 01:04:00,
2013-04-25 03:05:00,65.1,39.6,29.97,North,0,0.0,0.0,39,0.00,,---,0.00,VWS V14.01,2013-04-25 01:05:00,
2013-04-25 03:06:00,65.1,39.6,29.97,North,0,0.0,0.0,39,0.00,,---,0.00,VWS V14.01,2013-04-25 01:06:00,
2013-04-25 03:07:00,65.1,40.2,29.97,NE,45,0.0,0.0,40,0.00,,---,0.00,VWS V14.01,2013-04-25 01:07:00,
2013-04-25 03:08:00,65.1,39.6,29.97,NE,45,0.0,0.0,39,0.00,,---,0.00,VWS V14.01,2013-04-25 01:08:00,
2013-04-25 03:09:00,65.1,39.6,29.97,ENE,68,0.0,0.0,39,0.00,,---,0.00,VWS V14.01,2013-04-25 01:09:00,
2013-04-25 03:10:00,65.3,39.7,29.97,ENE,68,0.0,0.0,39,0.00,,---,0.00,VWS V14.01,2013-04-25 01:10:00,
2013-04-25 03:11:00,65.1,39.6,29.97,ENE,68,0.0,0.0,39,0.00,,---,0.00,VWS V14.01,2013-04-25 01:11:00,
2013-04-25 03:12:00,65.1,39.6,29.97,ENE,68,0.0,0.0,39,0.00,,---,0.00,VWS V14.01,2013-04-25 01:12:00,
2013-04-25 03:13:00,65.1,39.6,29.97,East,90,0.0,0.0,39,0.00,,---,0.00,VWS V14.01,2013-04-25 01:13:00,
2013-04-25 03:14:00,65.1,39.6,29.97,East,90,0.0,0.0,39,0.00,,---,0.00,VWS V14.01,2013-04-25 01:14:00,
2013-04-25 03:15:00,65.1,39.6,29.97,East,90,0.0,0.0,39,0.00,,---,0.00,VWS V14.01,2013-04-25 01:15:00,
2013-04-25 03:16:00,64.9,39.4,29.97,East,90,0.0,0.0,39,0.00,,---,0.00,VWS V14.01,2013-04-25 01:16:00,
2013-04-25 03:17:00,64.8,39.2,29.97,East,90,0.0,0.0,39,0.00,,---,0.00,VWS V14.01,2013-04-25 01:17:00,
2013-04-25 03:18:00,64.6,38.4,29.97,East,90,0.0,0.0,38,0.00,,---,0.00,VWS V14.01,2013-04-25 01:18:00,
2013-04-25 03:19:00,64.2,38.8,29.97,East,90,0.0,0.0,39,0.00,,---,0.00,VWS V14.01,2013-04-25 01:19:00,
2013-04-25 03:20:00,64.0,38.6,29.97,East,90,0.0,0.0,39,0.00,,---,0.00,VWS V14.01,2013-04-25 01:20:00,
2013-04-25 03:21:00,64.0,38.6,29.97,NNE,22,0.0,0.0,39,0.00,,---,0.00,VWS V14.01,2013-04-25 01:21:00,
2013-04-25 03:22:00,63.9,38.5,29.97,NNE,22,0.0,0.0,39,0.00,,---,0.00,VWS V14.01,2013-04-25 01:22:00,
2013-04-25 03:23:00,63.9,38.5,29.97,NNE,22,0.0,0.0,39,0.00,,---,0.00,VWS V14.01,2013-04-25 01:23:00,
2013-04-25 03:24:00,63.9,38.5,29.97,NNE,22,0.0,0.0,39,0.00,,---,0.00,VWS V14.01,2013-04-25 01:24:00,
2013-04-25 03:25:00,63.9,38.5,29.97,ENE,68,0.0,0.0,39,0.00,,---,0.00,VWS V14.01,2013-04-25 01:25:00,
2013-04-25 03:26:00,63.9,38.5,29.97,ENE,68,0.0,0.0,39,0.00,,---,0.00,VWS V14.01,2013-04-25 01:26:00,
2013-04-25 03:27:00,64.0,39.2,29.97,NE,45,0.0,0.0,40,0.00,,---,0.00,VWS V14.01,2013-04-25 01:27:00,
2013-04-25 03:28:00,64.0,39.2,29.97,NE,45,0.0,0.0,40,0.00,,---,0.00,VWS V14.01,2013-04-25 01:28:00,
2013-04-25 03:30:00,64.2,39.4,29.97,NE,45,0.0,0.0,40,0.00,,---,0.00,VWS V14.01,2013-04-25 01:30:00,
2013-04-25 03:31:00,64.2,39.4,29.97,NNW,338,0.0,0.0,40,0.00,,---,0.00,VWS V14.01,2013-04-25 01:31:00,
2013-04-25 03:32:00,64.4,39.6,29.97,NE,45,0.0,0.0,40,0.00,,---,0.00,VWS V14.01,2013-04-25 01:32:00,
2013-04-25 03:33:00,64.4,39.6,29.97,North,0,0.0,0.0,40,0.00,,---,0.00,VWS V14.01,2013-04-25 01:33:00,
2013-04-25 03:34:00,64.4,39.6,29.97,NNE,22,0.0,0.0,40,0.00,,---,0.00,VWS V14.01,2013-04-25 01:34:00,
2013-04-25 03:35:00,64.4,39.6,29.97,NNW,338,0.0,0.0,40,0.00,,---,0.00,VWS V14.01,2013-04-25 01:35:00,
2013-04-25 03:36:00,64.4,39.6,29.97,ENE,68,0.0,0.0,40,0.00,,---,0.00,VWS V14.01,2013-04-25 01:36:00,
2013-04-25 03:37:00,64.6,39.7,29.97,NNE,22,0.0,0.0,40,0.00,,---,0.00,VWS V14.01,2013-04-25 01:37:00,
2013-04-25 03:38:00,64.6,39.7,29.97,NNE,22,0.0,0.0,40,0.00,,---,0.00,VWS V14.01,2013-04-25 01:38:00,
2013-04-25 03:39:00,64.6,39.7,29.97,NNW,338,0.0,0.0,40,0.00,,---,0.00,VWS V14.01,2013-04-25 01:39:00,
2013-04-25 03:40:00,64.6,40.4,29.97,North,0,0.0,0.0,41,0.00,,---,0.00,VWS V14.01,2013-04-25 01:40:00,
2013-04-25 03:41:00,64.6,39.7,29.97,NNW,338,0.0,0.0,40,0.00,,---,0.00,VWS V14.01,2013-04-25 01:41:00,
2013-04-25 03:42:00,64.6,39.7,29.97,NNW,338,0.0,0.0,40,0.00,,---,0.00,VWS V14.01,2013-04-25 01:42:00,
2013-04-25 03:43:00,64.6,39.7,29.97,NNW,338,0.0,0.0,40,0.00,,---,0.00,VWS V14.01,2013-04-25 01:43:00,
2013-04-25 03:44:00,64.6,39.7,29.97,NNW,338,0.0,0.0,40,0.00,,---,0.00,VWS V14.01,2013-04-25 01:44:00,
2013-04-25 03:45:00,64.6,39.7,29.97,NE,45,0.0,0.0,40,0.00,,---,0.00,VWS V14.01,2013-04-25 01:45:00,
2013-04-25 03:46:00,64.6,39.7,29.97,NNE,22,0.0,0.0,40,0.00,,---,0.00,VWS V14.01,2013-04-25 01:46:00,
2013-04-25 03:47:00,64.8,39.9,29.97,ENE,68,0.0,0.0,40,0.00,,---,0.00,VWS V14.01,2013-04-25 01:47:00,
2013-04-25 03:48:00,64.9,40.1,29.97,ENE,68,0.0,0.0,40,0.00,,---,0.00,VWS V14.01,2013-04-25 01:48:00,
2013-04-25 03:49:00,64.9,40.1,29.97,East,90,0.0,0.0,40,0.00,,---,0.00,VWS V14.01,2013-04-25 01:49:00,
2013-04-25 03:50:00,65.1,40.2,29.97,East,90,0.0,0.0,40,0.00,,---,0.00,VWS V14.01,2013-04-25 01:50:00,
2013-04-25 03:51:00,65.3,40.4,29.97,ENE,68,0.0,0.0,40,0.00,,---,0.00,VWS V14.01,2013-04-25 01:51:00,
2013-04-25 03:52:00,65.3,40.4,29.97,ENE,68,0.0,0.0,40,0.00,,---,0.00,VWS V14.01,2013-04-25 01:52:00,
2013-04-25 03:53:00,65.5,39.9,29.97,NNE,22,0.0,0.0,39,0.00,,---,0.00,VWS V14.01,2013-04-25 01:53:00,
2013-04-25 03:54:00,65.5,39.9,29.97,ENE,68,0.0,0.0,39,0.00,,---,0.00,VWS V14.01,2013-04-25 01:54:00,
2013-04-25 03:55:00,65.7,40.0,29.97,ENE,68,0.0,0.0,39,0.00,,---,0.00,VWS V14.01,2013-04-25 01:55:00,
2013-04-25 03:56:00,65.7,40.0,29.97,NNE,22,0.0,0.0,39,0.00,,---,0.00,VWS V14.01,2013-04-25 01:56:00,
2013-04-25 03:57:00,65.8,39.5,29.97,ENE,68,0.0,0.0,38,0.00,,---,0.00,VWS V14.01,2013-04-25 01:57:00,
2013-04-25 03:58:00,65.8,39.5,29.97,ENE,68,0.0,0.0,38,0.00,,---,0.00,VWS V14.01,2013-04-25 01:58:00,
2013-04-25 03:59:00,65.8,39.5,29.97,NNE,22,0.0,0.0,38,0.00,,---,0.00,VWS V14.01,2013-04-25 01:59:00,
2013-04-25 04:00:00,65.8,38.9,29.97,ENE,68,0.0,0.0,37,0.00,,---,0.00,VWS V14.01,2013-04-25 02:00:00,
2013-04-25 04:01:00,65.8,38.9,29.97,NE,45,0.0,0.0,37,0.00,,---,0.00,VWS V14.01,2013-04-25 02:01:00,
2013-04-25 04:02:00,65.8,38.9,29.97,NNW,338,0.0,0.0,37,0.00,,---,0.00,VWS V14.01,2013-04-25 02:02:00,
2013-04-25 04:03:00,65.8,38.9,29.97,NNW,338,0.0,0.0,37,0.00,,---,0.00,VWS V14.01,2013-04-25 02:03:00,
2013-04-25 04:04:00,65.8,38.9,29.97,North,0,0.0,0.0,37,0.00,,---,0.00,VWS V14.01,2013-04-25 02:04:00,
2013-04-25 04:05:00,65.7,38.7,29.97,NNW,338,0.0,0.0,37,0.00,,---,0.00,VWS V14.01,2013-04-25 02:05:00,
2013-04-25 04:06:00,65.7,38.0,29.97,NNW,338,0.0,0.0,36,0.00,,---,0.00,VWS V14.01,2013-04-25 02:06:00,
2013-04-25 04:07:00,65.5,37.8,29.97,NNW,338,0.0,0.0,36,0.00,,---,0.00,VWS V14.01,2013-04-25 02:07:00,
2013-04-25 04:08:00,65.5,37.8,29.97,NNW,338,0.0,0.0,36,0.00,,---,0.00,VWS V14.01,2013-04-25 02:08:00,
2013-04-25 04:09:00,65.5,37.8,29.97,NNW,338,0.0,0.0,36,0.00,,---,0.00,VWS V14.01,2013-04-25 02:09:00,
2013-04-25 04:10:00,65.5,37.8,29.97,NNW,338,0.0,0.0,36,0.00,,---,0.00,VWS V14.01,2013-04-25 02:10:00,
2013-04-25 04:11:00,65.5,37.8,29.97,NNW,338,0.0,0.0,36,0.00,,---,0.00,VWS V14.01,2013-04-25 02:11:00,
2013-04-25 04:12:00,65.1,38.2,29.97,NNW,338,0.0,0.0,37,0.00,,---,0.00,VWS V14.01,2013-04-25 02:12:00,
2013-04-25 04:13:00,65.1,38.2,29.97,NNW,338,0.0,0.0,37,0.00,,---,0.00,VWS V14.01,2013-04-25 02:13:00,
2013-04-25 04:14:00,64.9,38.1,29.97,NNW,338,0.0,0.0,37,0.00,,---,0.00,VWS V14.01,2013-04-25 02:14:00,
2013-04-25 04:15:00,64.9,38.1,29.97,NNW,338,0.0,0.0,37,0.00,,---,0.00,VWS V14.01,2013-04-25 02:15:00,
2013-04-25 04:16:00,64.8,37.9,29.97,NNW,338,0.0,0.0,37,0.00,,---,0.00,VWS V14.01,2013-04-25 02:16:00,
2013-04-25 04:17:00,64.8,37.9,29.97,NNW,338,0.0,0.0,37,0.00,,---,0.00,VWS V14.01,2013-04-25 02:17:00,
2013-04-25 04:18:00,64.8,37.9,29.97,NNW,338,0.0,0.0,37,0.00,,---,0.00,VWS V14.01,2013-04-25 02:18:00,
2013-04-25 04:19:00,64.8,37.9,29.97,NNW,338,0.0,0.0,37,0.00,,---,0.00,VWS V14.01,2013-04-25 02:19:00,
2013-04-25 04:20:00,64.6,37.8,29.97,NNW,338,0.0,0.0,37,0.00,,---,0.00,VWS V14.01,2013-04-25 02:20:00,
2013-04-25 04:21:00,64.6,37.8,29.97,NNW,338,0.0,0.0,37,0.00,,---,0.00,VWS V14.01,2013-04-25 02:21:00,
2013-04-25 04:22:00,64.6,37.8,29.97,NNW,338,0.0,0.0,37,0.00,,---,0.00,VWS V14.01,2013-04-25 02:22:00,
2013-04-25 04:23:00,64.6,38.4,29.97,NNW,338,0.0,0.0,38,0.00,,---,0.00,VWS V14.01,2013-04-25 02:23:00,
2013-04-25 04:24:00,64.6,38.4,29.94,NNW,338,0.0,0.0,38,0.00,,---,0.00,VWS V14.01,2013-04-25 02:24:00,
2013-04-25 04:25:00,64.4,38.3,29.94,NNW,338,0.0,0.0,38,0.00,,---,0.00,VWS V14.01,2013-04-25 02:25:00,
2013-04-25 04:26:00,64.4,38.3,29.94,NNW,338,0.0,0.0,38,0.00,,---,0.00,VWS V14.01,2013-04-25 02:26:00,
2013-04-25 04:27:00,64.2,38.1,29.94,NNW,338,0.0,0.0,38,0.00,,---,0.00,VWS V14.01,2013-04-25 02:27:00,
2013-04-25 04:28:00,64.4,38.3,29.94,NNE,22,0.0,0.0,38,0.00,,---,0.00,VWS V14.01,2013-04-25 02:28:00,
2013-04-25 04:29:00,64.4,38.3,29.94,NNW,338,0.0,0.0,38,0.00,,---,0.00,VWS V14.01,2013-04-25 02:29:00,
2013-04-25 04:30:00,64.4,38.3,29.94,North,0,0.0,0.0,38,0.00,,---,0.00,VWS V14.01,2013-04-25 02:30:00,
2013-04-25 04:31:00,64.4,38.3,29.94,NNW,338,0.0,0.0,38,0.00,,---,0.00,VWS V14.01,2013-04-25 02:31:00,
2013-04-25 04:32:00,64.4,38.3,29.94,NNW,338,0.0,0.0,38,0.00,,---,0.00,VWS V14.01,2013-04-25 02:32:00,
2013-04-25 04:33:00,64.6,38.4,29.94,NNW,338,0.0,0.0,38,0.00,,---,0.00,VWS V14.01,2013-04-25 02:33:00,
2013-04-25 04:34:00,64.6,38.4,29.94,NNW,338,0.0,0.0,38,0.00,,---,0.00,VWS V14.01,2013-04-25 02:34:00,
2013-04-25 04:35:00,64.8,38.6,29.94,NNW,338,0.0,0.0,38,0.00,,---,0.00,VWS V14.01,2013-04-25 02:35:00,
2013-04-25 04:36:00,64.6,38.4,29.94,NNW,338,0.0,0.0,38,0.00,,---,0.00,VWS V14.01,2013-04-25 02:36:00,
2013-04-25 04:37:00,64.6,37.8,29.94,NNE,22,0.0,0.0,37,0.00,,---,0.00,VWS V14.01,2013-04-25 02:37:00,
2013-04-25 04:38:00,64.6,37.8,29.94,NNW,338,0.0,0.0,37,0.00,,---,0.00,VWS V14.01,2013-04-25 02:38:00,
2013-04-25 04:39:00,64.4,37.6,29.94,NNW,338,0.0,0.0,37,0.00,,---,0.00,VWS V14.01,2013-04-25 02:39:00,
2013-04-25 04:40:00,64.4,37.6,29.94,NNW,338,0.0,0.0,37,0.00,,---,0.00,VWS V14.01,2013-04-25 02:40:00,
2013-04-25 04:41:00,64.4,37.6,29.94,NNW,338,0.0,0.0,37,0.00,,---,0.00,VWS V14.01,2013-04-25 02:41:00,
2013-04-25 04:42:00,64.4,37.6,29.94,NNW,338,0.0,0.0,37,0.00,,---,0.00,VWS V14.01,2013-04-25 02:42:00,
2013-04-25 04:43:00,64.4,37.6,29.94,North,0,0.0,0.0,37,0.00,,---,0.00,VWS V14.01,2013-04-25 02:43:00,
2013-04-25 04:44:00,64.4,37.6,29.94,NNW,338,0.0,0.0,37,0.00,,---,0.00,VWS V14.01,2013-04-25 02:44:00,
2013-04-25 04:45:00,64.4,37.6,29.94,NNW,338,0.0,0.0,37,0.00,,---,0.00,VWS V14.01,2013-04-25 02:45:00,
2013-04-25 04:46:00,64.4,37.6,29.94,WNW,292,0.0,0.0,37,0.00,,---,0.00,VWS V14.01,2013-04-25 02:46:00,
2013-04-25 04:47:00,64.4,37.6,29.94,ENE,68,0.0,0.0,37,0.00,,---,0.00,VWS V14.01,2013-04-25 02:47:00,
2013-04-25 04:48:00,64.4,37.6,29.94,NNE,22,0.0,0.0,37,0.00,,---,0.00,VWS V14.01,2013-04-25 02:48:00,
2013-04-25 04:49:00,64.4,37.6,29.94,NNW,338,0.0,0.0,37,0.00,,---,0.00,VWS V14.01,2013-04-25 02:49:00,
2013-04-25 04:50:00,64.4,37.6,29.94,NNW,338,0.0,0.0,37,0.00,,---,0.00,VWS V14.01,2013-04-25 02:50:00,
2013-04-25 04:51:00,64.4,37.6,29.94,North,0,0.0,0.0,37,0.00,,---,0.00,VWS V14.01,2013-04-25 02:51:00,
2013-04-25 04:52:00,64.4,37.6,29.94,North,0,0.0,0.0,37,0.00,,---,0.00,VWS V14.01,2013-04-25 02:52:00,
2013-04-25 04:53:00,64.4,37.6,29.94,North,0,0.0,0.0,37,0.00,,---,0.00,VWS V14.01,2013-04-25 02:53:00,
2013-04-25 04:54:00,64.4,37.6,29.94,NNW,338,0.0,0.0,37,0.00,,---,0.00,VWS V14.01,2013-04-25 02:54:00,
2013-04-25 04:55:00,64.4,37.6,29.94,NNE,22,0.0,0.0,37,0.00,,---,0.00,VWS V14.01,2013-04-25 02:55:00,
2013-04-25 04:56:00,64.4,37.6,29.94,NNE,22,0.0,0.0,37,0.00,,---,0.00,VWS V14.01,2013-04-25 02:56:00,
2013-04-25 04:57:00,64.4,37.6,29.94,ENE,68,0.0,0.0,37,0.00,,---,0.00,VWS V14.01,2013-04-25 02:57:00,
2013-04-25 04:58:00,64.4,37.6,29.94,NNW,338,0.0,0.0,37,0.00,,---,0.00,VWS V14.01,2013-04-25 02:58:00,
2013-04-25 04:59:00,64.4,37.6,29.94,NNW,338,0.0,0.0,37,0.00,,---,0.00,VWS V14.01,2013-04-25 02:59:00,
2013-04-25 05:00:00,64.4,37.6,29.94,NNW,338,0.0,0.0,37,0.00,,---,0.00,VWS V14.01,2013-04-25 03:00:00,
2013-04-25 05:01:00,64.4,37.6,29.94,NNE,22,0.0,0.0,37,0.00,,---,0.00,VWS V14.01,2013-04-25 03:01:00,
2013-04-25 05:02:00,64.4,37.6,29.94,NNE,22,0.0,0.0,37,0.00,,---,0.00,VWS V14.01,2013-04-25 03:02:00,
2013-04-25 05:03:00,64.4,37.6,29.94,NNW,338,0.0,0.0,37,0.00,,---,0.00,VWS V14.01,2013-04-25 03:03:00,
2013-04-25 05:04:00,64.4,37.6,29.94,NNE,22,0.0,0.0,37,0.00,,---,0.00,VWS V14.01,2013-04-25 03:04:00,
2013-04-25 05:05:00,64.4,37.6,29.94,NNE,22,0.0,0.0,37,0.00,,---,0.00,VWS V14.01,2013-04-25 03:05:00,
2013-04-25 05:06:00,64.4,37.6,29.94,ENE,68,0.0,0.0,37,0.00,,---,0.00,VWS V14.01,2013-04-25 03:06:00,
2013-04-25 05:07:00,64.4,37.6,29.94,North,0,0.0,0.0,37,0.00,,---,0.00,VWS V14.01,2013-04-25 03:07:00,
2013-04-25 05:08:00,64.4,37.6,29.94,NNE,22,0.0,0.0,37,0.00,,---,0.00,VWS V14.01,2013-04-25 03:08:00,
2013-04-25 05:09:00,66.9,36.9,29.97,NNW,338,0.0,0.0,33,0.00,,---,0.00,VWS V14.01,2013-04-25 03:09:00,
2013-04-25 05:10:00,67.1,37.1,29.97,NNE,22,0.0,0.0,33,0.00,,---,0.00,VWS V14.01,2013-04-25 03:10:00,
2013-04-25 05:11:00,67.1,37.1,29.97,WNW,292,0.0,0.0,33,0.00,,---,0.00,VWS V14.01,2013-04-25 03:11:00,
2013-04-25 05:12:00,67.1,37.1,29.97,ENE,68,0.0,0.0,33,0.00,,---,0.00,VWS V14.01,2013-04-25 03:12:00,
2013-04-25 05:13:00,67.3,37.2,29.97,North,0,0.0,0.0,33,0.00,,---,0.00,VWS V14.01,2013-04-25 03:13:00,
2013-04-25 05:14:00,67.3,37.2,29.97,NNW,338,0.0,0.0,33,0.00,,---,0.00,VWS V14.01,2013-04-25 03:14:00,
2013-04-25 05:15:00,67.6,36.0,29.97,ENE,68,0.0,0.0,31,0.00,,---,0.00,VWS V14.01,2013-04-25 03:15:00,
2013-04-25 05:16:00,67.8,36.1,29.97,NNW,338,0.0,0.0,31,0.00,,---,0.00,VWS V14.01,2013-04-25 03:16:00,
2013-04-25 05:17:00,68.0,35.4,29.97,NNE,22,0.0,0.0,30,0.00,,---,0.00,VWS V14.01,2013-04-25 03:17:00,
2013-04-25 05:18:00,68.0,35.4,29.97,NNW,338,0.0,0.0,30,0.00,,---,0.00,VWS V14.01,2013-04-25 03:18:00,
2013-04-25 05:19:00,68.0,35.4,29.97,NNW,338,0.0,0.0,30,0.00,,---,0.00,VWS V14.01,2013-04-25 03:19:00,
2013-04-25 05:20:00,68.0,35.4,29.97,NNW,338,0.0,0.0,30,0.00,,---,0.00,VWS V14.01,2013-04-25 03:20:00,
2013-04-25 05:21:00,68.0,35.4,29.97,NNE,22,0.0,0.0,30,0.00,,---,0.00,VWS V14.01,2013-04-25 03:21:00,
2013-04-25 05:22:00,67.8,36.1,29.97,NNW,338,0.0,0.0,31,0.00,,---,0.00,VWS V14.01,2013-04-25 03:22:00,
2013-04-25 05:23:00,67.8,36.1,29.97,NNW,338,0.0,0.0,31,0.00,,---,0.00,VWS V14.01,2013-04-25 03:23:00,
2013-04-25 05:24:00,67.8,35.3,29.97,NNE,22,0.0,0.0,30,0.00,,---,0.00,VWS V14.01,2013-04-25 03:24:00,
2013-04-25 05:25:00,68.0,35.4,29.97,NNE,22,0.0,0.0,30,0.00,,---,0.00,VWS V14.01,2013-04-25 03:25:00,
2013-04-25 05:26:00,67.8,35.3,29.97,NNE,22,0.0,0.0,30,0.00,,---,0.00,VWS V14.01,2013-04-25 03:26:00,
2013-04-25 05:27:00,67.8,35.3,29.97,NNE,22,0.0,0.0,30,0.00,,---,0.00,VWS V14.01,2013-04-25 03:27:00,
2013-04-25 05:28:00,67.8,35.3,29.97,NNW,338,0.0,0.0,30,0.00,,---,0.00,VWS V14.01,2013-04-25 03:28:00,
2013-04-25 05:29:00,67.8,35.3,29.97,NNE,22,0.0,0.0,30,0.00,,---,0.00,VWS V14.01,2013-04-25 03:29:00,
2013-04-25 05:30:00,67.8,35.3,29.97,NNE,22,0.0,0.0,30,0.00,,---,0.00,VWS V14.01,2013-04-25 03:30:00,
2013-04-25 05:31:00,67.8,35.3,29.97,North,0,0.0,0.0,30,0.00,,---,0.00,VWS V14.01,2013-04-25 03:31:00,
2013-04-25 05:32:00,67.8,35.3,29.97,NNW,338,0.0,0.0,30,0.00,,---,0.00,VWS V14.01,2013-04-25 03:32:00,
2013-04-25 05:33:00,67.8,35.3,29.97,NNW,338,0.0,0.0,30,0.00,,---,0.00,VWS V14.01,2013-04-25 03:33:00,
2013-04-25 05:34:00,67.6,35.1,29.97,NNW,338,0.0,0.0,30,0.00,,---,0.00,VWS V14.01,2013-04-25 03:34:00,
2013-04-25 05:35:00,67.8,35.3,29.97,NNW,338,0.0,0.0,30,0.00,,---,0.00,VWS V14.01,2013-04-25 03:35:00,
2013-04-25 05:36:00,67.6,35.1,29.97,NNW,338,0.0,0.0,30,0.00,,---,0.00,VWS V14.01,2013-04-25 03:36:00,
2013-04-25 05:37:00,67.5,35.0,29.97,NNW,338,0.0,0.0,30,0.00,,---,0.00,VWS V14.01,2013-04-25 03:37:00,
2013-04-25 05:38:00,67.5,35.0,29.97,NNW,338,0.0,0.0,30,0.00,,---,0.00,VWS V14.01,2013-04-25 03:38:00,
2013-04-25 05:39:00,67.3,34.8,29.94,NNW,338,0.0,0.0,30,0.00,,---,0.00,VWS V14.01,2013-04-25 03:39:00,
2013-04-25 05:40:00,67.3,34.8,29.94,North,0,0.0,0.0,30,0.00,,---,0.00,VWS V14.01,2013-04-25 03:40:00,
2013-04-25 05:41:00,67.3,34.8,29.94,WNW,292,0.0,0.0,30,0.00,,---,0.00,VWS V14.01,2013-04-25 03:41:00,
2013-04-25 05:42:00,67.1,35.5,29.94,NNW,338,0.0,0.0,31,0.00,,---,0.00,VWS V14.01,2013-04-25 03:42:00,
2013-04-25 05:43:00,67.1,35.5,29.94,North,0,0.0,0.0,31,0.00,,---,0.00,VWS V14.01,2013-04-25 03:43:00,
2013-04-25 05:44:00,66.9,35.3,29.94,North,0,0.0,0.0,31,0.00,,---,0.00,VWS V14.01,2013-04-25 03:44:00,
2013-04-25 05:45:00,66.9,35.3,29.94,NE,45,0.0,0.0,31,0.00,,---,0.00,VWS V14.01,2013-04-25 03:45:00,
2013-04-25 05:46:00,66.7,35.2,29.94,NNW,338,0.0,0.0,31,0.00,,---,0.00,VWS V14.01,2013-04-25 03:46:00,
2013-04-25 05:47:00,66.9,35.3,29.94,NNE,22,0.0,0.0,31,0.00,,---,0.00,VWS V14.01,2013-04-25 03:47:00,
2013-04-25 05:48:00,66.7,35.2,29.94,ENE,68,0.0,0.0,31,0.00,,---,0.00,VWS V14.01,2013-04-25 03:48:00,
2013-04-25 05:49:00,66.7,35.2,29.94,ENE,68,0.0,0.0,31,0.00,,---,0.00,VWS V14.01,2013-04-25 03:49:00,
2013-04-25 05:50:00,66.7,35.2,29.94,NW,315,0.0,0.0,31,0.00,,---,0.00,VWS V14.01,2013-04-25 03:50:00,
2013-04-25 05:51:00,66.9,35.3,29.94,ENE,68,0.0,0.0,31,0.00,,---,0.00,VWS V14.01,2013-04-25 03:51:00,
2013-04-25 05:52:00,66.9,35.3,29.94,East,90,0.0,0.0,31,0.00,,---,0.00,VWS V14.01,2013-04-25 03:52:00,
2013-04-25 05:53:00,66.9,35.3,29.94,East,90,0.0,0.0,31,0.00,,---,0.00,VWS V14.01,2013-04-25 03:53:00,
2013-04-25 05:54:00,66.7,35.2,29.97,NNE,22,0.0,0.0,31,0.00,,---,0.00,VWS V14.01,2013-04-25 03:54:00,
2013-04-25 05:55:00,66.7,35.2,29.97,ENE,68,0.0,0.0,31,0.00,,---,0.00,VWS V14.01,2013-04-25 03:55:00,
2013-04-25 05:56:00,66.7,35.2,29.97,NE,45,0.0,0.0,31,0.00,,---,0.00,VWS V14.01,2013-04-25 03:56:00,
2013-04-25 05:57:00,66.7,36.0,29.97,NNE,22,0.0,0.0,32,0.00,,---,0.00,VWS V14.01,2013-04-25 03:57:00,
2013-04-25 05:58:00,66.7,36.0,29.97,ESE,112,0.0,0.0,32,0.00,,---,0.00,VWS V14.01,2013-04-25 03:58:00,
2013-04-25 05:59:00,66.7,36.0,29.97,ESE,112,0.0,0.0,32,0.00,,---,0.00,VWS V14.01,2013-04-25 03:59:00,
2013-04-25 06:00:00,66.9,36.1,29.97,ENE,68,0.0,0.0,32,0.00,,---,0.00,VWS V14.01,2013-04-25 04:00:00,
2013-04-25 06:01:00,66.9,36.1,29.97,ENE,68,0.0,0.0,32,0.00,,---,0.00,VWS V14.01,2013-04-25 04:01:00,
2013-04-25 06:02:00,66.9,35.3,29.97,NE,45,0.0,0.0,31,0.00,,---,0.00,VWS V14.01,2013-04-25 04:02:00,
2013-04-25 06:03:00,66.9,35.3,29.97,ENE,68,0.0,0.0,31,0.00,,---,0.00,VWS V14.01,2013-04-25 04:03:00,
2013-04-25 06:04:00,66.9,35.3,29.97,NNE,22,0.0,0.0,31,0.00,,---,0.00,VWS V14.01,2013-04-25 04:04:00,
2013-04-25 06:05:00,67.1,35.5,29.97,NNE,22,0.0,0.0,31,0.00,,---,0.00,VWS V14.01,2013-04-25 04:05:00,
2013-04-25 06:06:00,67.1,35.5,29.97,NNW,338,0.0,0.0,31,0.00,,---,0.00,VWS V14.01,2013-04-25 04:06:00,
2013-04-25 06:07:00,66.9,35.3,29.97,NE,45,0.0,0.0,31,0.00,,---,0.00,VWS V14.01,2013-04-25 04:07:00,
2013-04-25 06:08:00,66.9,35.3,29.97,NNE,22,0.0,0.0,31,0.00,,---,0.00,VWS V14.01,2013-04-25 04:08:00,
2013-04-25 06:09:00,66.9,35.3,29.97,NNE,22,0.0,0.0,31,0.00,,---,0.00,VWS V14.01,2013-04-25 04:09:00,
2013-04-25 06:10:00,66.9,35.3,29.97,NNE,22,0.0,0.0,31,0.00,,---,0.00,VWS V14.01,2013-04-25 04:10:00,
2013-04-25 06:11:00,66.7,35.2,29.97,NNE,22,0.0,0.0,31,0.00,,---,0.00,VWS V14.01,2013-04-25 04:11:00,
2013-04-25 06:12:00,66.7,35.2,29.97,NNE,22,0.0,0.0,31,0.00,,---,0.00,VWS V14.01,2013-04-25 04:12:00,
2013-04-25 06:13:00,66.7,35.2,29.97,North,0,0.0,0.0,31,0.00,,---,0.00,VWS V14.01,2013-04-25 04:13:00,
2013-04-25 06:14:00,66.9,35.3,29.97,North,0,0.0,0.0,31,0.00,,---,0.00,VWS V14.01,2013-04-25 04:14:00,
2013-04-25 06:15:00,66.9,35.3,29.97,NNW,338,0.0,0.0,31,0.00,,---,0.00,VWS V14.01,2013-04-25 04:15:00,
2013-04-25 06:16:00,66.9,35.3,29.97,NNW,338,0.0,0.0,31,0.00,,---,0.00,VWS V14.01,2013-04-25 04:16:00,
2013-04-25 06:17:00,67.1,35.5,29.97,NNW,338,0.0,0.0,31,0.00,,---,0.00,VWS V14.01,2013-04-25 04:17:00,
2013-04-25 06:18:00,67.1,35.5,29.97,NNW,338,0.0,0.0,31,0.00,,---,0.00,VWS V14.01,2013-04-25 04:18:00,
2013-04-25 06:19:00,66.9,35.3,29.97,NNW,338,0.0,0.0,31,0.00,,---,0.00,VWS V14.01,2013-04-25 04:19:00,
2013-04-25 06:20:00,66.9,35.3,29.97,NNW,338,0.0,0.0,31,0.00,,---,0.00,VWS V14.01,2013-04-25 04:20:00,
2013-04-25 06:21:00,66.7,35.2,29.97,NNW,338,0.0,0.0,31,0.00,,---,0.00,VWS V14.01,2013-04-25 04:21:00,
2013-04-25 06:22:00,66.7,35.2,29.97,NNW,338,0.0,0.0,31,0.00,,---,0.00,VWS V14.01,2013-04-25 04:22:00,
2013-04-25 06:23:00,66.7,35.2,29.97,NNW,338,0.0,0.0,31,0.00,,---,0.00,VWS V14.01,2013-04-25 04:23:00,
2013-04-25 06:24:00,66.6,35.0,29.97,NNW,338,0.0,0.0,31,0.00,,---,0.00,VWS V14.01,2013-04-25 04:24:00,
2013-04-25 06:25:00,66.4,34.9,29.97,NNW,338,0.0,0.0,31,0.00,,---,0.00,VWS V14.01,2013-04-25 04:25:00,
2013-04-25 06:26:00,66.4,35.7,29.97,NNW,338,0.0,0.0,32,0.00,,---,0.00,VWS V14.01,2013-04-25 04:26:00,
2013-04-25 06:27:00,66.4,35.7,29.97,NNW,338,0.0,0.0,32,0.00,,---,0.00,VWS V14.01,2013-04-25 04:27:00,
2013-04-25 06:28:00,66.4,35.7,29.97,NNW,338,0.0,0.0,32,0.00,,---,0.00,VWS V14.01,2013-04-25 04:28:00,
2013-04-25 06:29:00,66.2,35.5,29.97,NNW,338,0.0,0.0,32,0.00,,---,0.00,VWS V14.01,2013-04-25 04:29:00,
2013-04-25 06:30:00,66.2,35.5,29.97,NNW,338,0.0,0.0,32,0.00,,---,0.00,VWS V14.01,2013-04-25 04:30:00,
2013-04-25 06:31:00,66.2,35.5,29.97,NNW,338,0.0,0.0,32,0.00,,---,0.00,VWS V14.01,2013-04-25 04:31:00,
2013-04-25 06:32:00,66.2,35.5,29.97,NNW,338,0.0,0.0,32,0.00,,---,0.00,VWS V14.01,2013-04-25 04:32:00,
2013-04-25 06:33:00,66.0,36.1,29.97,NNW,338,0.0,0.0,33,0.00,,---,0.00,VWS V14.01,2013-04-25 04:33:00,
2013-04-25 06:34:00,66.0,36.1,29.97,NNW,338,0.0,0.0,33,0.00,,---,0.00,VWS V14.01,2013-04-25 04:34:00,
2013-04-25 06:35:00,66.0,36.1,29.97,NNW,338,0.0,0.0,33,0.00,,---,0.00,VWS V14.01,2013-04-25 04:35:00,
2013-04-25 06:36:00,66.0,36.1,29.97,NNW,338,0.0,0.0,33,0.00,,---,0.00,VWS V14.01,2013-04-25 04:36:00,
2013-04-25 06:37:00,66.0,36.1,29.97,NNW,338,0.0,0.0,33,0.00,,---,0.00,VWS V14.01,2013-04-25 04:37:00,
2013-04-25 06:38:00,66.0,36.1,29.97,NNW,338,0.0,0.0,33,0.00,,---,0.00,VWS V14.01,2013-04-25 04:38:00,
2013-04-25 06:39:00,66.0,36.1,29.97,NNW,338,0.0,0.0,33,0.00,,---,0.00,VWS V14.01,2013-04-25 04:39:00,
2013-04-25 06:40:00,66.0,36.1,29.97,NNW,338,0.0,0.0,33,0.00,,---,0.00,VWS V14.01,2013-04-25 04:40:00,
2013-04-25 06:41:00,66.0,36.1,29.97,NNW,338,0.0,0.0,33,0.00,,---,0.00,VWS V14.01,2013-04-25 04:41:00,
2013-04-25 06:42:00,66.0,36.1,29.97,NNW,338,0.0,0.0,33,0.00,,---,0.00,VWS V14.01,2013-04-25 04:42:00,
2013-04-25 06:43:00,66.0,36.1,29.97,North,0,0.0,0.0,33,0.00,,---,0.00,VWS V14.01,2013-04-25 04:43:00,
2013-04-25 06:44:00,66.0,36.1,29.97,NNE,22,0.0,0.0,33,0.00,,---,0.00,VWS V14.01,2013-04-25 04:44:00,
2013-04-25 06:45:00,66.2,36.3,29.97,North,0,0.0,0.0,33,0.00,,---,0.00,VWS V14.01,2013-04-25 04:45:00,
2013-04-25 06:46:00,66.2,36.3,29.97,NNE,22,0.0,0.0,33,0.00,,---,0.00,VWS V14.01,2013-04-25 04:46:00,
2013-04-25 06:47:00,66.2,36.3,29.97,NNE,22,0.0,0.0,33,0.00,,---,0.00,VWS V14.01,2013-04-25 04:47:00,
2013-04-25 06:48:00,66.2,36.3,29.97,ENE,68,0.0,0.0,33,0.00,,---,0.00,VWS V14.01,2013-04-25 04:48:00,
2013-04-25 06:49:00,66.2,36.3,29.97,ENE,68,0.0,0.0,33,0.00,,---,0.00,VWS V14.01,2013-04-25 04:49:00,
2013-04-25 06:50:00,66.2,36.3,29.97,NE,45,0.0,0.0,33,0.00,,---,0.00,VWS V14.01,2013-04-25 04:50:00,
2013-04-25 06:51:00,66.2,36.3,29.97,NNE,22,0.0,0.0,33,0.00,,---,0.00,VWS V14.01,2013-04-25 04:51:00,
2013-04-25 06:52:00,66.4,36.4,29.97,North,0,0.0,0.0,33,0.00,,---,0.00,VWS V14.01,2013-04-25 04:52:00,
2013-04-25 06:53:00,66.4,36.4,29.97,NNE,22,0.0,0.0,33,0.00,,---,0.00,VWS V14.01,2013-04-25 04:53:00,
2013-04-25 06:54:00,66.4,36.4,29.94,NNE,22,0.0,0.0,33,0.00,,---,0.00,VWS V14.01,2013-04-25 04:54:00,
2013-04-25 06:55:00,66.4,36.4,29.94,NE,45,0.0,0.0,33,0.00,,---,0.00,VWS V14.01,2013-04-25 04:55:00,
2013-04-25 06:56:00,66.4,36.4,29.94,NE,45,0.0,0.0,33,0.00,,---,0.00,VWS V14.01,2013-04-25 04:56:00,
2013-04-25 06:57:00,66.6,36.6,29.94,NNE,22,0.0,0.0,33,0.00,,---,0.00,VWS V14.01,2013-04-25 04:57:00,
2013-04-25 06:58:00,66.6,36.6,29.94,NNE,22,0.0,0.0,33,0.00,,---,0.00,VWS V14.01,2013-04-25 04:58:00,
2013-04-25 06:59:00,66.6,36.6,29.94,NNE,22,0.0,0.0,33,0.00,,---,0.00,VWS V14.01,2013-04-25 04:59:00,
2013-04-25 07:00:00,66.6,36.6,29.94,ENE,68,0.0,0.0,33,0.00,,---,0.00,VWS V14.01,2013-04-25 05:00:00,
2013-04-25 07:01:00,66.6,36.6,29.94,NNE,22,0.0,0.0,33,0.00,,---,0.00,VWS V14.01,2013-04-25 05:01:00,
2013-04-25 07:02:00,66.6,36.6,29.94,NNE,22,0.0,0.0,33,0.00,,---,0.00,VWS V14.01,2013-04-25 05:02:00,
2013-04-25 07:03:00,66.6,36.6,29.94,NNE,22,0.0,0.0,33,0.00,,---,0.00,VWS V14.01,2013-04-25 05:03:00,
2013-04-25 07:04:00,66.6,36.6,29.94,ENE,68,0.0,0.0,33,0.00,,---,0.00,VWS V14.01,2013-04-25 05:04:00,
2013-04-25 07:05:00,66.6,36.6,29.94,ENE,68,0.0,0.0,33,0.00,,---,0.00,VWS V14.01,2013-04-25 05:05:00,
2013-04-25 07:06:00,66.7,36.8,29.94,ENE,68,0.0,0.0,33,0.00,,---,0.00,VWS V14.01,2013-04-25 05:06:00,
2013-04-25 07:07:00,66.7,36.8,29.94,NNE,22,0.0,0.0,33,0.00,,---,0.00,VWS V14.01,2013-04-25 05:07:00,
2013-04-25 07:08:00,66.9,36.9,29.94,NNE,22,0.0,0.0,33,0.00,,---,0.00,VWS V14.01,2013-04-25 05:08:00,
2013-04-25 07:09:00,66.9,36.9,29.97,NE,45,0.0,0.0,33,0.00,,---,0.00,VWS V14.01,2013-04-25 05:09:00,
2013-04-25 07:10:00,67.1,37.1,29.97,NNE,22,0.0,0.0,33,0.00,,---,0.00,VWS V14.01,2013-04-25 05:10:00,
2013-04-25 07:11:00,67.1,37.1,29.97,NNE,22,0.0,0.0,33,0.00,,---,0.00,VWS V14.01,2013-04-25 05:11:00,
2013-04-25 07:12:00,67.3,37.2,29.97,NNE,22,0.0,0.0,33,0.00,,---,0.00,VWS V14.01,2013-04-25 05:12:00,
2013-04-25 07:13:00,67.3,37.2,29.97,NNE,22,0.0,0.0,33,0.00,,---,0.00,VWS V14.01,2013-04-25 05:13:00,
2013-04-25 07:14:00,67.5,36.6,29.97,ENE,68,0.0,0.0,32,0.00,,---,0.00,VWS V14.01,2013-04-25 05:14:00,
2013-04-25 07:15:00,67.5,36.6,29.97,ENE,68,0.0,0.0,32,0.00,,---,0.00,VWS V14.01,2013-04-25 05:15:00,
2013-04-25 07:16:00,67.5,36.6,29.97,ENE,68,0.0,0.0,32,0.00,,---,0.00,VWS V14.01,2013-04-25 05:16:00,
2013-04-25 07:17:00,67.5,36.6,29.97,NNE,22,0.0,0.0,32,0.00,,---,0.00,VWS V14.01,2013-04-25 05:17:00,
2013-04-25 07:18:00,67.8,36.9,29.97,NNE,22,0.0,0.0,32,0.00,,---,0.00,VWS V14.01,2013-04-25 05:18:00,
2013-04-25 07:19:00,67.8,36.9,29.97,NNW,338,0.0,0.0,32,0.00,,---,0.00,VWS V14.01,2013-04-25 05:19:00,
2013-04-25 07:20:00,68.0,37.1,29.97,NNW,338,0.0,0.0,32,0.00,,---,0.00,VWS V14.01,2013-04-25 05:20:00,
2013-04-25 07:21:00,68.0,37.1,29.97,North,0,0.0,0.0,32,0.00,,---,0.00,VWS V14.01,2013-04-25 05:21:00,
2013-04-25 07:22:00,68.2,37.2,29.97,NNW,338,0.0,0.0,32,0.00,,---,0.00,VWS V14.01,2013-04-25 05:22:00,
2013-04-25 07:23:00,68.2,36.4,29.97,NNW,338,0.0,0.0,31,0.00,,---,0.00,VWS V14.01,2013-04-25 05:23:00,
2013-04-25 07:24:00,68.2,35.6,29.94,NNW,338,0.0,0.0,30,0.00,,---,0.00,VWS V14.01,2013-04-25 05:24:00,
2013-04-25 07:25:00,68.2,35.6,29.94,North,0,0.0,0.0,30,0.00,,---,0.00,VWS V14.01,2013-04-25 05:25:00,
2013-04-25 07:26:00,68.2,35.6,29.94,NNW,338,0.0,0.0,30,0.00,,---,0.00,VWS V14.01,2013-04-25 05:26:00,
2013-04-25 07:27:00,68.2,35.6,29.94,NNW,338,0.0,0.0,30,0.00,,---,0.00,VWS V14.01,2013-04-25 05:27:00,
2013-04-25 07:28:00,68.2,35.6,29.94,North,0,0.0,0.0,30,0.00,,---,0.00,VWS V14.01,2013-04-25 05:28:00,
2013-04-25 07:29:00,68.2,35.6,29.94,NNW,338,0.0,0.0,30,0.00,,---,0.00,VWS V14.01,2013-04-25 05:29:00,
2013-04-25 07:30:00,68.2,35.6,29.94,NNW,338,0.0,0.0,30,0.00,,---,0.00,VWS V14.01,2013-04-25 05:30:00,
2013-04-25 07:31:00,68.2,35.6,29.94,NNW,338,0.0,0.0,30,0.00,,---,0.00,VWS V14.01,2013-04-25 05:31:00,
2013-04-25 07:32:00,68.0,35.4,29.94,NNW,338,0.0,0.0,30,0.00,,---,0.00,VWS V14.01,2013-04-25 05:32:00,
2013-04-25 07:33:00,68.0,35.4,29.94,NNW,338,0.0,0.0,30,0.00,,---,0.00,VWS V14.01,2013-04-25 05:33:00,
2013-04-25 07:34:00,68.0,35.4,29.94,NNW,338,0.0,0.0,30,0.00,,---,0.00,VWS V14.01,2013-04-25 05:34:00,
2013-04-25 07:35:00,68.0,35.4,29.94,NNW,338,0.0,0.0,30,0.00,,---,0.00,VWS V14.01,2013-04-25 05:35:00,
2013-04-25 07:36:00,68.0,35.4,29.94,North,0,0.0,0.0,30,0.00,,---,0.00,VWS V14.01,2013-04-25 05:36:00,
2013-04-25 07:46:00,67.5,35.8,29.97,NNW,338,0.0,0.0,31,0.00,,---,0.00,VWS V14.01,2013-04-25 05:46:00,
2013-04-25 07:54:00,67.5,36.6,29.97,NNW,338,0.0,0.0,32,0.00,,---,0.00,VWS V14.01,2013-04-25 05:54:00,
2013-04-25 07:55:00,67.5,36.6,29.97,NNW,338,0.0,0.0,32,0.00,,---,0.00,VWS V14.01,2013-04-25 05:55:00,
2013-04-25 08:00:00,67.5,36.6,29.94,NNW,338,0.0,0.0,32,0.00,,---,0.00,VWS V14.01,2013-04-25 06:00:00,
2013-04-25 08:02:00,67.5,37.4,29.94,NNW,338,0.0,0.0,33,0.00,,---,0.00,VWS V14.01,2013-04-25 06:02:00,
2013-04-25 08:03:00,67.6,37.5,29.94,NNW,338,0.0,0.0,33,0.00,,---,0.00,VWS V14.01,2013-04-25 06:03:00,
2013-04-25 08:05:00,68.0,37.1,29.94,NNW,338,0.0,0.0,32,0.00,,---,0.00,VWS V14.01,2013-04-25 06:05:00,
2013-04-25 08:06:00,68.0,37.1,29.94,NNW,338,0.0,0.0,32,0.00,,---,0.00,VWS V14.01,2013-04-25 06:06:00,
2013-04-25 08:07:00,68.2,37.2,29.94,NW,315,0.0,0.0,32,0.00,,---,0.00,VWS V14.01,2013-04-25 06:07:00,
2013-04-25 08:09:00,68.7,37.7,29.94,NNW,338,0.0,0.0,32,0.00,,---,0.00,VWS V14.01,2013-04-25 06:09:00,
2013-04-25 08:12:00,69.1,37.2,29.94,NNW,338,0.0,0.0,31,0.00,,---,0.00,VWS V14.01,2013-04-25 06:12:00,
2013-04-25 08:13:00,69.1,37.2,29.94,NNW,338,0.0,0.0,31,0.00,,---,0.00,VWS V14.01,2013-04-25 06:13:00,
2013-04-25 08:14:00,69.4,37.5,29.94,NNW,338,0.0,0.0,31,0.00,,---,0.00,VWS V14.01,2013-04-25 06:14:00,
2013-04-25 08:15:00,69.6,36.8,29.94,NNW,338,0.0,0.0,30,0.00,,---,0.00,VWS V14.01,2013-04-25 06:15:00,
2013-04-25 08:17:00,70.0,36.3,29.94,North,0,0.0,0.0,29,0.00,,---,0.00,VWS V14.01,2013-04-25 06:17:00,
2013-04-25 08:19:00,70.7,35.1,29.94,NNE,22,0.0,0.0,27,0.00,,---,0.00,VWS V14.01,2013-04-25 06:19:00,
2013-04-25 08:20:00,71.1,35.4,29.94,NNW,338,0.0,0.0,27,0.00,,---,0.00,VWS V14.01,2013-04-25 06:20:00,
2013-04-25 08:24:00,72.3,34.6,29.94,NNW,338,0.0,0.0,25,0.00,,---,0.00,VWS V14.01,2013-04-25 06:24:00,
2013-04-25 08:25:00,72.3,34.6,29.94,North,0,0.0,0.0,25,0.00,,---,0.00,VWS V14.01,2013-04-25 06:25:00,
2013-04-25 08:26:00,72.5,33.7,29.97,NNW,338,0.0,0.0,24,0.00,,---,0.00,VWS V14.01,2013-04-25 06:26:00,
2013-04-25 08:27:00,72.7,33.8,29.97,NNW,338,0.0,0.0,24,0.00,,---,0.00,VWS V14.01,2013-04-25 06:27:00,
2013-04-25 08:30:00,73.2,34.3,29.97,NNW,338,0.0,0.0,24,0.00,,---,0.00,VWS V14.01,2013-04-25 06:30:00,
2013-04-25 08:31:00,73.2,34.3,29.97,NNW,338,0.0,0.0,24,0.00,,---,0.00,VWS V14.01,2013-04-25 06:31:00,
2013-04-25 08:33:00,73.9,33.8,29.97,NNW,338,0.0,0.0,23,0.00,,---,0.00,VWS V14.01,2013-04-25 06:33:00,
2013-04-25 08:35:00,73.9,33.8,29.97,NNW,338,0.0,0.0,23,0.00,,---,0.00,VWS V14.01,2013-04-25 06:35:00,
2013-04-25 08:39:00,75.0,34.7,29.97,NNW,338,0.0,0.0,23,0.00,,---,0.00,VWS V14.01,2013-04-25 06:39:00,
2013-04-25 08:41:00,75.4,33.9,29.97,NNW,338,0.0,0.0,22,0.00,,---,0.00,VWS V14.01,2013-04-25 06:41:00,
2013-04-25 08:42:00,75.4,33.9,29.97,NNW,338,0.0,0.0,22,0.00,,---,0.00,VWS V14.01,2013-04-25 06:42:00,
2013-04-25 08:45:00,75.7,34.2,29.97,NNW,338,0.0,0.0,22,0.00,,---,0.00,VWS V14.01,2013-04-25 06:45:00,
2013-04-25 08:46:00,75.9,34.4,29.97,NNW,338,0.0,0.0,22,0.00,,---,0.00,VWS V14.01,2013-04-25 06:46:00,
2013-04-25 08:47:00,76.1,34.5,29.97,NNW,338,0.0,0.0,22,0.00,,---,0.00,VWS V14.01,2013-04-25 06:47:00,
2013-04-25 08:48:00,76.3,34.7,29.97,NNW,338,0.0,0.0,22,0.00,,---,0.00,VWS V14.01,2013-04-25 06:48:00,
2013-04-25 08:52:00,76.5,34.8,29.97,NNW,338,0.0,0.0,22,0.00,,---,0.00,VWS V14.01,2013-04-25 06:52:00,
2013-04-25 08:53:00,76.5,34.8,29.97,NNW,338,0.0,0.0,22,0.00,,---,0.00,VWS V14.01,2013-04-25 06:53:00,
2013-04-25 08:54:00,76.8,34.0,29.97,North,0,0.0,0.0,21,0.00,,---,0.00,VWS V14.01,2013-04-25 06:54:00,
2013-04-25 08:57:00,77.2,34.3,29.97,North,0,0.0,0.0,21,0.00,,---,0.00,VWS V14.01,2013-04-25 06:57:00,
2013-04-25 08:58:00,77.4,34.4,29.97,NNW,338,0.0,0.0,21,0.00,,---,0.00,VWS V14.01,2013-04-25 06:58:00,
2013-04-25 09:00:00,77.5,34.6,29.97,NNW,338,0.0,0.0,21,0.00,,---,0.00,VWS V14.01,2013-04-25 07:00:00,
2013-04-25 09:01:00,77.5,34.6,29.97,NNW,338,0.0,0.0,21,0.00,,---,0.00,VWS V14.01,2013-04-25 07:01:00,
2013-04-25 09:03:00,77.9,34.9,29.97,NNW,338,0.0,0.0,21,0.00,,---,0.00,VWS V14.01,2013-04-25 07:03:00,
2013-04-25 09:04:00,78.1,35.0,29.97,NNW,338,0.0,0.0,21,0.00,,---,0.00,VWS V14.01,2013-04-25 07:04:00,
2013-04-25 09:06:00,78.4,35.3,29.97,NW,315,0.0,0.0,21,0.00,,---,0.00,VWS V14.01,2013-04-25 07:06:00,
2013-04-25 09:08:00,79.0,34.5,29.97,NNW,338,0.0,0.0,20,0.00,,---,0.00,VWS V14.01,2013-04-25 07:08:00,
2013-04-25 09:09:00,79.2,34.7,29.97,NNW,338,0.0,0.0,20,0.00,,---,0.00,VWS V14.01,2013-04-25 07:09:00,
2013-04-25 09:10:00,79.3,34.8,29.97,NNW,338,0.0,0.0,20,0.00,,---,0.00,VWS V14.01,2013-04-25 07:10:00,
2013-04-25 09:13:00,79.7,35.1,29.97,NNW,338,0.0,0.0,20,0.00,,---,0.00,VWS V14.01,2013-04-25 07:13:00,
2013-04-25 09:14:00,79.9,35.3,29.97,NNW,338,0.0,0.0,20,0.00,,---,0.00,VWS V14.01,2013-04-25 07:14:00,
2013-04-25 09:16:00,80.4,35.7,29.97,North,0,0.0,0.0,20,0.00,,---,0.00,VWS V14.01,2013-04-25 07:16:00,
2013-04-25 09:17:00,80.6,35.9,29.97,NE,45,0.0,0.0,20,0.00,,---,0.00,VWS V14.01,2013-04-25 07:17:00,
2013-04-25 09:18:00,80.6,35.9,29.97,NE,45,0.0,0.0,20,0.00,,---,0.00,VWS V14.01,2013-04-25 07:18:00,
2013-04-25 09:20:00,81.0,34.9,29.97,North,0,0.0,0.0,19,0.00,,---,0.00,VWS V14.01,2013-04-25 07:20:00,
2013-04-25 09:22:00,81.1,35.0,29.97,NNW,338,0.0,0.0,19,0.00,,---,0.00,VWS V14.01,2013-04-25 07:22:00,
2013-04-25 09:24:00,81.3,35.2,29.97,NNW,338,0.0,0.0,19,0.00,,---,0.00,VWS V14.01,2013-04-25 07:24:00,
2013-04-25 09:25:00,81.9,35.6,29.97,NNW,338,0.0,0.0,19,0.00,,---,0.00,VWS V14.01,2013-04-25 07:25:00,
2013-04-25 09:27:00,82.0,33.0,29.97,NNW,338,0.0,0.0,17,0.00,,---,0.00,VWS V14.01,2013-04-25 07:27:00,
2013-04-25 09:30:00,82.6,31.9,29.97,NNW,338,0.0,0.0,16,0.00,,---,0.00,VWS V14.01,2013-04-25 07:30:00,
2013-04-25 09:33:00,82.9,32.2,29.97,NNW,338,0.0,0.0,16,0.00,,---,0.00,VWS V14.01,2013-04-25 07:33:00,
2013-04-25 09:36:00,82.8,32.0,29.97,NNW,338,0.0,0.0,16,0.00,,---,0.00,VWS V14.01,2013-04-25 07:36:00,
2013-04-25 09:37:00,82.9,32.2,29.97,NNW,338,0.0,0.0,16,0.00,,---,0.00,VWS V14.01,2013-04-25 07:37:00,
2013-04-25 09:39:00,83.1,32.3,29.97,NNE,22,0.0,0.0,16,0.00,,---,0.00,VWS V14.01,2013-04-25 07:39:00,
2013-04-25 09:40:00,83.3,32.5,29.97,NNW,338,0.0,0.0,16,0.00,,---,0.00,VWS V14.01,2013-04-25 07:40:00,
2013-04-25 09:42:00,83.5,32.6,29.97,NNW,338,0.0,0.0,16,0.00,,---,0.00,VWS V14.01,2013-04-25 07:42:00,
2013-04-25 09:47:00,83.5,32.6,29.97,NNW,338,0.0,0.0,16,0.00,,---,0.00,VWS V14.01,2013-04-25 07:47:00,
2013-04-25 09:48:00,83.7,32.8,29.97,NNW,338,0.0,0.0,16,0.00,,---,0.00,VWS V14.01,2013-04-25 07:48:00,
2013-04-25 09:50:00,83.8,29.6,29.97,NNW,338,0.0,0.0,14,0.00,,---,0.00,VWS V14.01,2013-04-25 07:50:00,
2013-04-25 09:52:00,84.0,29.8,29.97,NNW,338,0.0,0.0,14,0.00,,---,0.00,VWS V14.01,2013-04-25 07:52:00,
2013-04-25 09:53:00,84.0,29.8,29.97,NNW,338,0.0,0.0,14,0.00,,---,0.00,VWS V14.01,2013-04-25 07:53:00,
2013-04-25 09:55:00,84.0,29.8,29.97,NNE,22,0.0,0.0,14,0.00,,---,0.00,VWS V14.01,2013-04-25 07:55:00,
2013-04-25 09:57:00,84.4,28.2,29.97,NNW,338,0.0,0.0,13,0.00,,---,0.00,VWS V14.01,2013-04-25 07:57:00,
2013-04-25 09:58:00,84.4,28.2,29.97,NNW,338,0.0,0.0,13,0.00,,---,0.00,VWS V14.01,2013-04-25 07:58:00,
2013-04-25 09:59:00,84.6,28.4,29.97,NNW,338,0.0,0.0,13,0.00,,---,0.00,VWS V14.01,2013-04-25 07:59:00,
2013-04-25 10:01:00,84.2,28.1,29.97,NNW,338,0.0,0.0,13,0.00,,---,0.00,VWS V14.01,2013-04-25 08:01:00,
2013-04-25 10:03:00,84.6,28.4,29.97,North,0,0.0,0.0,13,0.00,,---,0.00,VWS V14.01,2013-04-25 08:03:00,
2013-04-25 10:06:00,84.9,28.6,29.97,NNW,338,0.0,0.0,13,0.00,,---,0.00,VWS V14.01,2013-04-25 08:06:00,
2013-04-25 10:08:00,84.7,28.5,29.97,NNW,338,0.0,0.0,13,0.00,,---,0.00,VWS V14.01,2013-04-25 08:08:00,
2013-04-25 10:09:00,85.1,28.8,29.97,NNW,338,0.0,0.0,13,0.00,,---,0.00,VWS V14.01,2013-04-25 08:09:00,
2013-04-25 10:10:00,85.3,28.9,29.97,NNW,338,0.0,0.0,13,0.00,,---,0.00,VWS V14.01,2013-04-25 08:10:00,
2013-04-25 10:14:00,85.8,29.4,29.97,NNW,338,0.0,0.0,13,0.00,,---,0.00,VWS V14.01,2013-04-25 08:14:00,
2013-04-25 10:16:00,85.8,29.4,29.97,North,0,0.0,0.0,13,0.00,,---,0.00,VWS V14.01,2013-04-25 08:16:00,
2013-04-25 10:17:00,86.0,29.5,29.97,NNW,338,0.0,0.0,13,0.00,,---,0.00,VWS V14.01,2013-04-25 08:17:00,
2013-04-25 10:18:00,86.2,29.6,29.97,NNW,338,0.0,0.0,13,0.00,,---,0.00,VWS V14.01,2013-04-25 08:18:00,
2013-04-25 10:21:00,86.7,30.0,29.97,NNW,338,0.0,0.0,13,0.00,,---,0.00,VWS V14.01,2013-04-25 08:21:00,
2013-04-25 10:22:00,87.1,30.3,29.97,NNW,338,0.0,0.0,13,0.00,,---,0.00,VWS V14.01,2013-04-25 08:22:00,
2013-04-25 10:23:00,87.1,30.3,29.97,NNW,338,0.0,0.0,13,0.00,,---,0.00,VWS V14.01,2013-04-25 08:23:00,
2013-04-25 10:27:00,87.8,30.9,29.97,NW,315,0.0,0.0,13,0.00,,---,0.00,VWS V14.01,2013-04-25 08:27:00,
2013-04-25 10:28:00,88.5,31.5,29.97,NNE,22,0.0,0.0,13,0.00,,---,0.00,VWS V14.01,2013-04-25 08:28:00,
2013-04-25 10:30:00,88.7,31.6,29.97,North,0,0.0,0.0,13,0.00,,---,0.00,VWS V14.01,2013-04-25 08:30:00,
2013-04-25 10:31:00,88.7,31.6,29.97,NNW,338,0.0,0.0,13,0.00,,---,0.00,VWS V14.01,2013-04-25 08:31:00,
2013-04-25 10:33:00,89.1,31.9,29.97,NNE,22,0.0,0.0,13,0.00,,---,0.00,VWS V14.01,2013-04-25 08:33:00,
2013-04-25 10:34:00,89.2,32.0,29.97,NNW,338,0.0,0.0,13,0.00,,---,0.00,VWS V14.01,2013-04-25 08:34:00,
2013-04-25 10:35:00,90.1,30.7,29.97,NNW,338,0.0,0.0,12,0.00,,---,0.00,VWS V14.01,2013-04-25 08:35:00,
2013-04-25 10:36:00,90.1,30.7,29.97,NNE,22,0.0,0.0,12,0.00,,---,0.00,VWS V14.01,2013-04-25 08:36:00,
2013-04-25 10:37:00,90.1,30.7,29.97,NNE,22,0.0,0.0,12,0.00,,---,0.00,VWS V14.01,2013-04-25 08:37:00,
2013-04-25 10:38:00,90.1,30.7,29.97,North,0,0.0,0.0,12,0.00,,---,0.00,VWS V14.01,2013-04-25 08:38:00,
2013-04-25 10:39:00,90.1,30.7,29.97,NNW,338,0.0,0.0,12,0.00,,---,0.00,VWS V14.01,2013-04-25 08:39:00,
2013-04-25 10:40:00,90.3,30.9,30.00,NNW,338,0.0,0.0,12,0.00,,---,0.00,VWS V14.01,2013-04-25 08:40:00,
2013-04-25 10:41:00,90.5,31.0,30.00,NNE,22,0.0,0.0,12,0.00,,---,0.00,VWS V14.01,2013-04-25 08:41:00,
2013-04-25 10:42:00,90.5,31.0,30.00,North,0,0.0,0.0,12,0.00,,---,0.00,VWS V14.01,2013-04-25 08:42:00,
2013-04-25 10:43:00,90.5,31.0,30.00,NNW,338,0.0,0.0,12,0.00,,---,0.00,VWS V14.01,2013-04-25 08:43:00,
2013-04-25 10:44:00,90.9,31.3,30.00,NNW,338,0.0,0.0,12,0.00,,---,0.00,VWS V14.01,2013-04-25 08:44:00,
2013-04-25 10:45:00,90.9,31.3,30.00,NNW,338,0.0,0.0,12,0.00,,---,0.00,VWS V14.01,2013-04-25 08:45:00,
2013-04-25 10:46:00,91.4,31.7,30.00,ENE,68,0.0,0.0,12,0.00,,---,0.00,VWS V14.01,2013-04-25 08:46:00,
2013-04-25 10:56:00,91.9,32.1,30.00,North,0,0.0,0.0,12,0.00,,---,0.00,VWS V14.01,2013-04-25 08:56:00,
2013-04-25 10:57:00,92.1,32.3,30.00,NNE,22,0.0,0.0,12,0.00,,---,0.00,VWS V14.01,2013-04-25 08:57:00,
2013-04-25 11:02:00,92.8,32.8,30.00,NNE,22,0.0,0.0,12,0.00,,---,0.00,VWS V14.01,2013-04-25 09:02:00,
2013-04-25 11:03:00,93.0,33.0,30.00,NNW,338,0.0,0.0,12,0.00,,---,0.00,VWS V14.01,2013-04-25 09:03:00,
2013-04-25 11:04:00,93.6,31.2,30.00,North,0,0.0,0.0,11,0.00,,---,0.00,VWS V14.01,2013-04-25 09:04:00,
2013-04-25 11:09:00,94.6,32.0,30.00,North,0,0.0,0.0,11,0.00,,---,0.00,VWS V14.01,2013-04-25 09:09:00,
2013-04-25 11:10:00,94.6,32.0,30.00,NNW,338,0.0,0.0,11,0.00,,---,0.00,VWS V14.01,2013-04-25 09:10:00,
2013-04-25 11:11:00,94.8,32.2,30.00,NNW,338,0.0,0.0,11,0.00,,---,0.00,VWS V14.01,2013-04-25 09:11:00,
2013-04-25 11:15:00,95.5,32.7,30.00,NNW,338,0.0,0.0,11,0.00,,---,0.00,VWS V14.01,2013-04-25 09:15:00,
2013-04-25 11:16:00,95.7,32.9,30.00,NNE,22,0.0,0.0,11,0.00,,---,0.00,VWS V14.01,2013-04-25 09:16:00,
2013-04-25 11:18:00,96.4,33.4,30.00,North,0,0.0,0.0,11,0.00,,---,0.00,VWS V14.01,2013-04-25 09:18:00,
2013-04-25 11:20:00,97.0,33.8,30.00,WNW,292,0.0,0.0,11,0.00,,---,0.00,VWS V14.01,2013-04-25 09:20:00,
2013-04-25 11:22:00,98.1,34.7,30.00,SSW,202,0.0,0.0,11,0.00,,---,0.00,VWS V14.01,2013-04-25 09:22:00,
2013-04-25 11:23:00,97.7,34.4,30.00,SSW,202,0.0,0.0,11,0.00,,---,0.00,VWS V14.01,2013-04-25 09:23:00,
2013-04-25 11:24:00,95.2,32.5,30.00,SSW,202,0.0,0.0,11,0.00,,---,0.00,VWS V14.01,2013-04-25 09:24:00,
2013-04-25 11:25:00,94.3,31.8,30.00,SW,225,0.0,0.0,11,0.00,,---,0.00,VWS V14.01,2013-04-25 09:25:00,
2013-04-25 11:26:00,93.4,31.1,30.00,SW,225,0.0,0.0,11,0.00,,---,0.00,VWS V14.01,2013-04-25 09:26:00,
2013-04-25 11:27:00,92.5,32.5,30.00,SSW,202,0.0,0.0,12,0.00,,---,0.00,VWS V14.01,2013-04-25 09:27:00,
2013-04-25 11:28:00,90.9,31.3,30.00,SSW,202,0.0,0.0,12,0.00,,---,0.00,VWS V14.01,2013-04-25 09:28:00,
2013-04-25 11:29:00,89.2,32.0,30.00,SSW,202,0.0,0.0,13,0.00,,---,0.00,VWS V14.01,2013-04-25 09:29:00,
2013-04-25 11:30:00,87.6,35.9,30.00,SSW,202,0.0,0.0,16,0.00,,---,0.00,VWS V14.01,2013-04-25 09:30:00,
2013-04-25 11:31:00,86.2,34.8,30.00,SSW,202,0.0,0.0,16,0.00,,---,0.00,VWS V14.01,2013-04-25 09:31:00,
2013-04-25 11:32:00,84.2,33.2,30.00,SSW,202,0.0,0.0,16,0.00,,---,0.00,VWS V14.01,2013-04-25 09:32:00,
2013-04-25 11:33:00,83.8,32.9,30.00,SW,225,0.0,0.0,16,0.00,,---,0.00,VWS V14.01,2013-04-25 09:33:00,
2013-04-25 11:34:00,83.7,32.8,30.00,SW,225,0.0,0.0,16,0.00,,---,0.00,VWS V14.01,2013-04-25 09:34:00,
2013-04-25 11:35:00,83.8,37.2,30.00,SW,225,0.0,0.0,19,0.00,,---,0.00,VWS V14.01,2013-04-25 09:35:00,
2013-04-25 11:36:00,84.4,36.3,30.00,SW,225,0.0,0.0,18,0.00,,---,0.00,VWS V14.01,2013-04-25 09:36:00,
2013-04-25 11:37:00,85.1,36.9,30.00,SW,225,0.0,0.0,18,0.00,,---,0.00,VWS V14.01,2013-04-25 09:37:00,
2013-04-25 11:38:00,85.8,37.5,30.00,SW,225,0.0,0.0,18,0.00,,---,0.00,VWS V14.01,2013-04-25 09:38:00,
2013-04-25 11:39:00,87.6,38.9,29.97,SW,225,0.0,0.0,18,0.00,,---,0.00,VWS V14.01,2013-04-25 09:39:00,
2013-04-25 11:40:00,87.8,39.1,29.97,ESE,112,0.0,0.0,18,0.00,,---,0.00,VWS V14.01,2013-04-25 09:40:00,
2013-04-25 11:41:00,87.4,38.8,29.97,South,180,0.0,0.0,18,0.00,,---,0.00,VWS V14.01,2013-04-25 09:41:00,
2013-04-25 11:42:00,86.9,38.3,29.97,SSE,158,0.0,0.0,18,0.00,,---,0.00,VWS V14.01,2013-04-25 09:42:00,
2013-04-25 11:43:00,86.9,38.3,29.97,SSE,158,0.0,0.0,18,0.00,,---,0.00,VWS V14.01,2013-04-25 09:43:00,
2013-04-25 11:44:00,87.3,38.6,29.97,SSW,202,0.0,0.0,18,0.00,,---,0.00,VWS V14.01,2013-04-25 09:44:00,
2013-04-25 11:45:00,87.3,38.6,29.97,SSW,202,0.0,0.0,18,0.00,,---,0.00,VWS V14.01,2013-04-25 09:45:00,
2013-04-25 11:46:00,85.8,38.8,29.97,SSW,202,0.0,0.0,19,0.00,,---,0.00,VWS V14.01,2013-04-25 09:46:00,
2013-04-25 11:47:00,85.5,38.5,29.97,SSW,202,0.0,0.0,19,0.00,,---,0.00,VWS V14.01,2013-04-25 09:47:00,
2013-04-25 11:48:00,84.7,38.0,29.97,SSW,202,0.0,0.0,19,0.00,,---,0.00,VWS V14.01,2013-04-25 09:48:00,
2013-04-25 11:49:00,84.4,37.7,29.97,SSW,202,0.0,0.0,19,0.00,,---,0.00,VWS V14.01,2013-04-25 09:49:00,
2013-04-25 11:50:00,84.4,37.7,29.97,SSW,202,0.0,0.0,19,0.00,,---,0.00,VWS V14.01,2013-04-25 09:50:00,
2013-04-25 11:51:00,84.4,37.7,29.97,SSW,202,0.0,0.0,19,0.00,,---,0.00,VWS V14.01,2013-04-25 09:51:00,
2013-04-25 11:52:00,84.6,37.8,29.97,SSW,202,0.0,0.0,19,0.00,,---,0.00,VWS V14.01,2013-04-25 09:52:00,
2013-04-25 11:53:00,84.9,38.1,29.97,SSW,202,0.0,0.0,19,0.00,,---,0.00,VWS V14.01,2013-04-25 09:53:00,
2013-04-25 11:54:00,84.9,38.1,29.97,SE,135,0.0,0.0,19,0.00,,---,0.00,VWS V14.01,2013-04-25 09:54:00,
2013-04-25 12:04:00,84.4,37.7,29.97,SSE,158,0.0,0.0,19,0.00,,---,0.00,VWS V14.01,2013-04-25 10:04:00,
2013-04-25 12:05:00,84.4,37.7,29.97,South,180,0.0,0.0,19,0.00,,---,0.00,VWS V14.01,2013-04-25 10:05:00,
2013-04-25 12:10:00,84.0,38.7,29.97,SSE,158,0.0,0.0,20,0.00,,---,0.00,VWS V14.01,2013-04-25 10:10:00,
2013-04-25 12:11:00,84.7,38.0,29.97,SSE,158,0.0,0.0,19,0.00,,---,0.00,VWS V14.01,2013-04-25 10:11:00,
2013-04-25 12:12:00,85.3,38.4,29.97,SSE,158,0.0,0.0,19,0.00,,---,0.00,VWS V14.01,2013-04-25 10:12:00,
2013-04-25 12:14:00,86.4,39.3,29.97,SSE,158,0.0,0.0,19,0.00,,---,0.00,VWS V14.01,2013-04-25 10:14:00,
2013-04-25 12:16:00,86.7,39.6,29.97,SSE,158,0.0,0.0,19,0.00,,---,0.00,VWS V14.01,2013-04-25 10:16:00,
2013-04-25 12:21:00,85.1,38.2,29.97,ESE,112,0.0,0.0,19,0.00,,---,0.00,VWS V14.01,2013-04-25 10:21:00,
2013-04-25 12:22:00,84.9,38.1,29.97,SSE,158,0.0,0.0,19,0.00,,---,0.00,VWS V14.01,2013-04-25 10:22:00,
2013-04-25 12:24:00,84.6,37.8,29.97,SSE,158,0.0,0.0,19,0.00,,---,0.00,VWS V14.01,2013-04-25 10:24:00,
2013-04-25 12:25:00,84.7,38.0,29.97,SW,225,0.0,0.0,19,0.00,,---,0.00,VWS V14.01,2013-04-25 10:25:00,
2013-04-25 12:26:00,84.9,38.1,29.97,SW,225,0.0,0.0,19,0.00,,---,0.00,VWS V14.01,2013-04-25 10:26:00,
2013-04-25 12:27:00,84.9,38.1,29.97,SSW,202,0.0,0.0,19,0.00,,---,0.00,VWS V14.01,2013-04-25 10:27:00,
2013-04-25 12:31:00,86.0,39.0,29.97,ESE,112,0.0,0.0,19,0.00,,---,0.00,VWS V14.01,2013-04-25 10:31:00,
2013-04-25 12:32:00,86.0,39.0,29.97,ESE,112,0.0,0.0,19,0.00,,---,0.00,VWS V14.01,2013-04-25 10:32:00,
2013-04-25 12:33:00,85.6,38.7,29.97,SSE,158,0.0,0.0,19,0.00,,---,0.00,VWS V14.01,2013-04-25 10:33:00,
2013-04-25 12:36:00,84.9,38.1,29.97,WSW,248,0.0,0.0,19,0.00,,---,0.00,VWS V14.01,2013-04-25 10:36:00,
2013-04-25 12:38:00,84.2,37.5,29.97,SE,135,0.0,0.0,19,0.00,,---,0.00,VWS V14.01,2013-04-25 10:38:00,
2013-04-25 12:40:00,84.0,37.4,29.97,East,90,0.0,0.0,19,0.00,,---,0.00,VWS V14.01,2013-04-25 10:40:00,
2013-04-25 12:41:00,84.2,37.5,29.97,East,90,0.0,0.0,19,0.00,,---,0.00,VWS V14.01,2013-04-25 10:41:00,
2013-04-25 12:42:00,84.2,37.5,29.97,East,90,0.0,0.0,19,0.00,,---,0.00,VWS V14.01,2013-04-25 10:42:00,
2013-04-25 12:43:00,84.2,37.5,29.97,East,90,0.0,0.0,19,0.00,,---,0.00,VWS V14.01,2013-04-25 10:43:00,
2013-04-25 12:45:00,84.9,38.1,29.97,SSE,158,0.0,0.0,19,0.00,,---,0.00,VWS V14.01,2013-04-25 10:45:00,
2013-04-25 12:46:00,84.7,38.0,29.97,East,90,0.0,0.0,19,0.00,,---,0.00,VWS V14.01,2013-04-25 10:46:00,
2013-04-25 12:48:00,84.4,37.7,29.97,East,90,0.0,0.0,19,0.00,,---,0.00,VWS V14.01,2013-04-25 10:48:00,
2013-04-25 12:49:00,84.0,37.4,29.97,East,90,0.0,0.0,19,0.00,,---,0.00,VWS V14.01,2013-04-25 10:49:00,
2013-04-25 12:51:00,83.5,36.9,29.97,SE,135,0.0,0.0,19,0.00,,---,0.00,VWS V14.01,2013-04-25 10:51:00,
2013-04-25 12:52:00,83.3,36.8,29.97,SE,135,0.0,0.0,19,0.00,,---,0.00,VWS V14.01,2013-04-25 10:52:00,
2013-04-25 12:54:00,83.3,38.1,29.97,ESE,112,0.0,0.0,20,0.00,,---,0.00,VWS V14.01,2013-04-25 10:54:00,
2013-04-25 12:57:00,83.5,38.2,29.97,SE,135,0.0,0.0,20,0.00,,---,0.00,VWS V14.01,2013-04-25 10:57:00,
2013-04-25 12:59:00,83.7,38.4,29.97,ESE,112,0.0,0.0,20,0.00,,---,0.00,VWS V14.01,2013-04-25 10:59:00,
2013-04-25 13:00:00,83.3,38.1,29.97,ESE,112,0.0,0.0,20,0.00,,---,0.00,VWS V14.01,2013-04-25 11:00:00,
2013-04-25 13:03:00,82.8,36.3,29.97,ESE,112,0.0,0.0,19,0.00,,---,0.00,VWS V14.01,2013-04-25 11:03:00,
2013-04-25 13:04:00,82.8,36.3,29.97,ESE,112,0.0,0.0,19,0.00,,---,0.00,VWS V14.01,2013-04-25 11:04:00,
2013-04-25 13:05:00,82.8,36.3,29.97,SE,135,0.0,0.0,19,0.00,,---,0.00,VWS V14.01,2013-04-25 11:05:00,
2013-04-25 13:08:00,81.9,36.9,29.97,ESE,112,0.0,0.0,20,0.00,,---,0.00,VWS V14.01,2013-04-25 11:08:00,
2013-04-25 13:10:00,81.9,36.9,29.97,ESE,112,0.0,0.0,20,0.00,,---,0.00,VWS V14.01,2013-04-25 11:10:00,
2013-04-25 13:11:00,81.9,36.9,29.97,ESE,112,0.0,0.0,20,0.00,,---,0.00,VWS V14.01,2013-04-25 11:11:00,
2013-04-25 13:12:00,81.5,36.6,29.97,East,90,0.0,0.0,20,0.00,,---,0.00,VWS V14.01,2013-04-25 11:12:00,
2013-04-25 13:14:00,81.5,36.6,29.97,ESE,112,0.0,0.0,20,0.00,,---,0.00,VWS V14.01,2013-04-25 11:14:00,
2013-04-25 13:15:00,81.3,36.5,29.97,SE,135,0.0,0.0,20,0.00,,---,0.00,VWS V14.01,2013-04-25 11:15:00,
2013-04-25 13:16:00,81.1,36.3,29.97,ESE,112,0.0,0.0,20,0.00,,---,0.00,VWS V14.01,2013-04-25 11:16:00,
2013-04-25 13:20:00,79.3,36.0,29.97,ESE,112,0.0,0.0,21,0.00,,---,0.00,VWS V14.01,2013-04-25 11:20:00,
2013-04-25 13:21:00,79.3,36.0,29.97,ESE,112,0.0,0.0,21,0.00,,---,0.00,VWS V14.01,2013-04-25 11:21:00,
2013-04-25 13:22:00,79.5,36.2,29.97,ENE,68,0.0,0.0,21,0.00,,---,0.00,VWS V14.01,2013-04-25 11:22:00,
2013-04-25 13:24:00,79.5,36.2,29.97,ESE,112,0.0,0.0,21,0.00,,---,0.00,VWS V14.01,2013-04-25 11:24:00,
2013-04-25 13:25:00,79.5,36.2,29.97,ESE,112,0.0,0.0,21,0.00,,---,0.00,VWS V14.01,2013-04-25 11:25:00,
2013-04-25 13:27:00,79.0,35.8,29.97,ESE,112,0.0,0.0,21,0.00,,---,0.00,VWS V14.01,2013-04-25 11:27:00,
2013-04-25 13:28:00,78.8,35.6,29.97,ESE,112,0.0,0.0,21,0.00,,---,0.00,VWS V14.01,2013-04-25 11:28:00,
2013-04-25 13:33:00,78.8,35.6,29.97,ESE,112,0.0,0.0,21,0.00,,---,0.00,VWS V14.01,2013-04-25 11:33:00,
2013-04-25 13:34:00,79.0,35.8,29.97,ESE,112,0.0,0.0,21,0.00,,---,0.00,VWS V14.01,2013-04-25 11:34:00,
2013-04-25 13:35:00,79.2,35.9,29.97,ESE,112,0.0,0.0,21,0.00,,---,0.00,VWS V14.01,2013-04-25 11:35:00,
2013-04-25 13:38:00,79.0,35.8,29.97,ESE,112,0.0,0.0,21,0.00,,---,0.00,VWS V14.01,2013-04-25 11:38:00,
2013-04-25 13:40:00,79.0,35.8,29.97,East,90,0.0,0.0,21,0.00,,---,0.00,VWS V14.01,2013-04-25 11:40:00,
2013-04-25 13:42:00,78.6,35.5,29.97,ESE,112,0.0,0.0,21,0.00,,---,0.00,VWS V14.01,2013-04-25 11:42:00,
2013-04-25 13:43:00,78.6,35.5,29.97,SE,135,0.0,0.0,21,0.00,,---,0.00,VWS V14.01,2013-04-25 11:43:00,
2013-04-25 13:44:00,78.4,35.3,29.97,SSE,158,0.0,0.0,21,0.00,,---,0.00,VWS V14.01,2013-04-25 11:44:00,
2013-04-25 13:45:00,78.6,35.5,29.97,SE,135,0.0,0.0,21,0.00,,---,0.00,VWS V14.01,2013-04-25 11:45:00,
2013-04-25 13:46:00,78.8,35.6,29.97,SE,135,0.0,0.0,21,0.00,,---,0.00,VWS V14.01,2013-04-25 11:46:00,
2013-04-25 13:48:00,78.8,35.6,29.97,ESE,112,0.0,0.0,21,0.00,,---,0.00,VWS V14.01,2013-04-25 11:48:00,
2013-04-25 13:49:00,79.0,35.8,29.97,East,90,0.0,0.0,21,0.00,,---,0.00,VWS V14.01,2013-04-25 11:49:00,
2013-04-25 13:50:00,79.0,35.8,29.97,SE,135,0.0,0.0,21,0.00,,---,0.00,VWS V14.01,2013-04-25 11:50:00,
2013-04-25 13:53:00,78.8,35.6,29.97,ESE,112,0.0,0.0,21,0.00,,---,0.00,VWS V14.01,2013-04-25 11:53:00,
2013-04-25 13:54:00,78.6,35.5,29.97,ESE,112,0.0,0.0,21,0.00,,---,0.00,VWS V14.01,2013-04-25 11:54:00,
2013-04-25 13:55:00,78.6,35.5,29.97,ESE,112,0.0,0.0,21,0.00,,---,0.00,VWS V14.01,2013-04-25 11:55:00,
2013-04-25 13:57:00,78.6,35.5,29.97,ESE,112,0.0,0.0,21,0.00,,---,0.00,VWS V14.01,2013-04-25 11:57:00,
2013-04-25 13:59:00,78.4,35.3,29.97,ESE,112,0.0,0.0,21,0.00,,---,0.00,VWS V14.01,2013-04-25 11:59:00,
2013-04-25 14:00:00,78.3,35.2,29.97,East,90,0.0,0.0,21,0.00,,---,0.00,VWS V14.01,2013-04-25 12:00:00,
2013-04-25 14:01:00,78.4,35.3,29.97,East,90,0.0,0.0,21,0.00,,---,0.00,VWS V14.01,2013-04-25 12:01:00,
2013-04-25 14:03:00,78.3,35.2,29.97,ESE,112,0.0,0.0,21,0.00,,---,0.00,VWS V14.01,2013-04-25 12:03:00,
2013-04-25 14:05:00,78.6,35.5,29.97,East,90,0.0,0.0,21,0.00,,---,0.00,VWS V14.01,2013-04-25 12:05:00,
2013-04-25 14:07:00,79.0,35.8,29.97,ESE,112,0.0,0.0,21,0.00,,---,0.00,VWS V14.01,2013-04-25 12:07:00,
2013-04-25 14:08:00,79.0,34.5,29.97,ESE,112,0.0,0.0,20,0.00,,---,0.00,VWS V14.01,2013-04-25 12:08:00,
2013-04-25 14:10:00,79.0,35.8,29.97,ENE,68,0.0,0.0,21,0.00,,---,0.00,VWS V14.01,2013-04-25 12:10:00,
2013-04-25 14:11:00,79.0,35.8,29.94,East,90,0.0,0.0,21,0.00,,---,0.00,VWS V14.01,2013-04-25 12:11:00,
2013-04-25 14:14:00,78.8,35.6,29.94,East,90,0.0,0.0,21,0.00,,---,0.00,VWS V14.01,2013-04-25 12:14:00,
2013-04-25 14:17:00,78.6,35.5,29.94,East,90,0.0,0.0,21,0.00,,---,0.00,VWS V14.01,2013-04-25 12:17:00,
2013-04-25 14:20:00,78.8,35.6,29.94,East,90,0.0,0.0,21,0.00,,---,0.00,VWS V14.01,2013-04-25 12:20:00,
2013-04-25 14:21:00,79.0,34.5,29.94,East,90,0.0,0.0,20,0.00,,---,0.00,VWS V14.01,2013-04-25 12:21:00,
2013-04-25 14:23:00,79.3,34.8,29.94,ESE,112,0.0,0.0,20,0.00,,---,0.00,VWS V14.01,2013-04-25 12:23:00,
2013-04-25 14:24:00,79.3,36.0,29.94,East,90,0.0,0.0,21,0.00,,---,0.00,VWS V14.01,2013-04-25 12:24:00,
2013-04-25 14:27:00,79.7,35.1,29.94,ESE,112,0.0,0.0,20,0.00,,---,0.00,VWS V14.01,2013-04-25 12:27:00,
2013-04-25 14:28:00,79.9,35.3,29.94,ESE,112,0.0,0.0,20,0.00,,---,0.00,VWS V14.01,2013-04-25 12:28:00,
2013-04-25 14:29:00,79.9,35.3,29.94,ESE,112,0.0,0.0,20,0.00,,---,0.00,VWS V14.01,2013-04-25 12:29:00,
2013-04-25 14:32:00,79.7,35.1,29.94,East,90,0.0,0.0,20,0.00,,---,0.00,VWS V14.01,2013-04-25 12:32:00,
2013-04-25 14:34:00,79.9,35.3,29.94,ENE,68,0.0,0.0,20,0.00,,---,0.00,VWS V14.01,2013-04-25 12:34:00,
2013-04-25 14:38:00,80.2,35.6,29.94,East,90,0.0,0.0,20,0.00,,---,0.00,VWS V14.01,2013-04-25 12:38:00,
2013-04-25 14:40:00,80.1,35.4,29.94,ESE,112,0.0,0.0,20,0.00,,---,0.00,VWS V14.01,2013-04-25 12:40:00,
2013-04-25 14:41:00,80.1,35.4,29.97,ENE,68,0.0,0.0,20,0.00,,---,0.00,VWS V14.01,2013-04-25 12:41:00,
2013-04-25 14:45:00,80.6,35.9,29.97,East,90,0.0,0.0,20,0.00,,---,0.00,VWS V14.01,2013-04-25 12:45:00,
2013-04-25 14:46:00,80.4,35.7,29.97,ESE,112,0.0,0.0,20,0.00,,---,0.00,VWS V14.01,2013-04-25 12:46:00,
2013-04-25 14:47:00,80.4,35.7,29.97,ENE,68,0.0,0.0,20,0.00,,---,0.00,VWS V14.01,2013-04-25 12:47:00,
2013-04-25 14:49:00,80.2,35.6,29.97,ENE,68,0.0,0.0,20,0.00,,---,0.00,VWS V14.01,2013-04-25 12:49:00,
2013-04-25 14:51:00,80.4,35.7,29.97,ESE,112,0.0,0.0,20,0.00,,---,0.00,VWS V14.01,2013-04-25 12:51:00,
2013-04-25 14:53:00,80.2,35.6,29.97,East,90,0.0,0.0,20,0.00,,---,0.00,VWS V14.01,2013-04-25 12:53:00,
2013-04-25 14:55:00,80.2,35.6,29.97,ESE,112,0.0,0.0,20,0.00,,---,0.00,VWS V14.01,2013-04-25 12:55:00,
2013-04-25 14:58:00,80.1,35.4,29.97,NNE,22,0.0,0.0,20,0.00,,---,0.00,VWS V14.01,2013-04-25 12:58:00,
2013-04-25 15:00:00,80.1,35.4,29.97,East,90,0.0,0.0,20,0.00,,---,0.00,VWS V14.01,2013-04-25 13:00:00,
2013-04-25 15:02:00,80.2,35.6,29.97,ENE,68,0.0,0.0,20,0.00,,---,0.00,VWS V14.01,2013-04-25 13:02:00,
2013-04-25 15:05:00,80.2,35.6,29.97,ENE,68,0.0,0.0,20,0.00,,---,0.00,VWS V14.01,2013-04-25 13:05:00,
2013-04-25 15:07:00,80.4,35.7,29.97,ENE,68,0.0,0.0,20,0.00,,---,0.00,VWS V14.01,2013-04-25 13:07:00,
2013-04-25 15:08:00,80.4,35.7,29.97,East,90,0.0,0.0,20,0.00,,---,0.00,VWS V14.01,2013-04-25 13:08:00,
2013-04-25 15:12:00,79.9,35.3,29.94,ESE,112,0.0,0.0,20,0.00,,---,0.00,VWS V14.01,2013-04-25 13:12:00,
2013-04-25 15:14:00,79.7,35.1,29.94,ENE,68,0.0,0.0,20,0.00,,---,0.00,VWS V14.01,2013-04-25 13:14:00,
2013-04-25 15:15:00,79.7,35.1,29.94,ENE,68,0.0,0.0,20,0.00,,---,0.00,VWS V14.01,2013-04-25 13:15:00,
2013-04-25 15:16:00,79.7,35.1,29.94,East,90,0.0,0.0,20,0.00,,---,0.00,VWS V14.01,2013-04-25 13:16:00,
2013-04-25 15:17:00,79.7,35.1,29.94,ESE,112,0.0,0.0,20,0.00,,---,0.00,VWS V14.01,2013-04-25 13:17:00,
2013-04-25 15:18:00,79.7,35.1,29.94,ENE,68,0.0,0.0,20,0.00,,---,0.00,VWS V14.01,2013-04-25 13:18:00,
2013-04-25 15:20:00,79.9,35.3,29.94,ENE,68,0.0,0.0,20,0.00,,---,0.00,VWS V14.01,2013-04-25 13:20:00,
2013-04-25 15:23:00,79.7,35.1,29.94,East,90,0.0,0.0,20,0.00,,---,0.00,VWS V14.01,2013-04-25 13:23:00,
2013-04-25 15:24:00,79.7,31.1,29.94,East,90,0.0,0.0,17,0.00,,---,0.00,VWS V14.01,2013-04-25 13:24:00,
2013-04-25 15:26:00,79.7,31.1,29.94,ESE,112,0.0,0.0,17,0.00,,---,0.00,VWS V14.01,2013-04-25 13:26:00,
2013-04-25 15:29:00,79.7,35.1,29.94,ENE,68,0.0,0.0,20,0.00,,---,0.00,VWS V14.01,2013-04-25 13:29:00,
2013-04-25 15:30:00,79.7,35.1,29.94,ENE,68,0.0,0.0,20,0.00,,---,0.00,VWS V14.01,2013-04-25 13:30:00,
2013-04-25 15:34:00,79.5,35.0,29.94,ENE,68,0.0,0.0,20,0.00,,---,0.00,VWS V14.01,2013-04-25 13:34:00,
2013-04-25 15:35:00,79.3,34.8,29.94,ENE,68,0.0,0.0,20,0.00,,---,0.00,VWS V14.01,2013-04-25 13:35:00,
2013-04-25 15:36:00,79.5,35.0,29.94,ENE,68,0.0,0.0,20,0.00,,---,0.00,VWS V14.01,2013-04-25 13:36:00,
2013-04-25 15:39:00,79.9,35.3,29.94,East,90,0.0,0.0,20,0.00,,---,0.00,VWS V14.01,2013-04-25 13:39:00,
2013-04-25 15:41:00,80.1,35.4,29.94,East,90,0.0,0.0,20,0.00,,---,0.00,VWS V14.01,2013-04-25 13:41:00,
2013-04-25 15:44:00,80.1,31.4,29.94,East,90,0.0,0.0,17,0.00,,---,0.00,VWS V14.01,2013-04-25 13:44:00,
2013-04-25 15:45:00,80.1,31.4,29.94,East,90,0.0,0.0,17,0.00,,---,0.00,VWS V14.01,2013-04-25 13:45:00,
2013-04-25 15:46:00,80.1,31.4,29.94,East,90,0.0,0.0,17,0.00,,---,0.00,VWS V14.01,2013-04-25 13:46:00,
2013-04-25 15:51:00,80.2,31.5,29.94,ENE,68,0.0,0.0,17,0.00,,---,0.00,VWS V14.01,2013-04-25 13:51:00,
2013-04-25 15:52:00,80.1,31.4,29.94,ENE,68,0.0,0.0,17,0.00,,---,0.00,VWS V14.01,2013-04-25 13:52:00,
2013-04-25 15:53:00,80.1,31.4,29.94,NE,45,0.0,0.0,17,0.00,,---,0.00,VWS V14.01,2013-04-25 13:53:00,
2013-04-25 15:58:00,79.9,35.3,29.94,ENE,68,0.0,0.0,20,0.00,,---,0.00,VWS V14.01,2013-04-25 13:58:00,
2013-04-25 15:59:00,79.9,35.3,29.94,ENE,68,0.0,0.0,20,0.00,,---,0.00,VWS V14.01,2013-04-25 13:59:00,
2013-04-25 16:00:00,79.7,35.1,29.94,NNE,22,0.0,0.0,20,0.00,,---,0.00,VWS V14.01,2013-04-25 14:00:00,
2013-04-25 16:03:00,79.0,34.5,29.94,ENE,68,0.0,0.0,20,0.00,,---,0.00,VWS V14.01,2013-04-25 14:03:00,
2013-04-25 16:05:00,78.8,34.4,29.94,ENE,68,0.0,0.0,20,0.00,,---,0.00,VWS V14.01,2013-04-25 14:05:00,
2013-04-25 16:06:00,78.8,34.4,29.94,ENE,68,0.0,0.0,20,0.00,,---,0.00,VWS V14.01,2013-04-25 14:06:00,
2013-04-25 16:08:00,79.0,30.5,29.94,ENE,68,0.0,0.0,17,0.00,,---,0.00,VWS V14.01,2013-04-25 14:08:00,
2013-04-25 16:13:00,78.3,31.3,29.94,ENE,68,0.0,0.0,18,0.00,,---,0.00,VWS V14.01,2013-04-25 14:13:00,
2013-04-25 16:15:00,78.1,31.2,29.94,NNW,338,0.0,0.0,18,0.00,,---,0.00,VWS V14.01,2013-04-25 14:15:00,
2013-04-25 16:17:00,78.1,31.2,29.94,NNE,22,0.0,0.0,18,0.00,,---,0.00,VWS V14.01,2013-04-25 14:17:00,
2013-04-25 16:18:00,78.3,31.3,29.94,NE,45,0.0,0.0,18,0.00,,---,0.00,VWS V14.01,2013-04-25 14:18:00,
2013-04-25 16:19:00,78.1,31.2,29.94,NNE,22,0.0,0.0,18,0.00,,---,0.00,VWS V14.01,2013-04-25 14:19:00,
2013-04-25 16:23:00,78.1,31.2,29.94,WSW,248,0.0,0.0,18,0.00,,---,0.00,VWS V14.01,2013-04-25 14:23:00,
2013-04-25 16:24:00,78.1,31.2,29.94,WSW,248,0.0,0.0,18,0.00,,---,0.00,VWS V14.01,2013-04-25 14:24:00,
2013-04-25 16:25:00,77.9,31.0,29.94,NE,45,0.0,0.0,18,0.00,,---,0.00,VWS V14.01,2013-04-25 14:25:00,
2013-04-25 16:27:00,77.9,31.0,29.97,NNE,22,0.0,0.0,18,0.00,,---,0.00,VWS V14.01,2013-04-25 14:27:00,
2013-04-25 16:30:00,77.9,31.0,29.97,ENE,68,0.0,0.0,18,0.00,,---,0.00,VWS V14.01,2013-04-25 14:30:00,
2013-04-25 16:32:00,78.1,31.2,29.97,ENE,68,0.0,0.0,18,0.00,,---,0.00,VWS V14.01,2013-04-25 14:32:00,
2013-04-25 16:35:00,78.1,31.2,29.97,East,90,0.0,0.0,18,0.00,,---,0.00,VWS V14.01,2013-04-25 14:35:00,
2013-04-25 16:37:00,78.1,31.2,29.97,NNE,22,0.0,0.0,18,0.00,,---,0.00,VWS V14.01,2013-04-25 14:37:00,
2013-04-25 16:38:00,78.1,31.2,29.97,NE,45,0.0,0.0,18,0.00,,---,0.00,VWS V14.01,2013-04-25 14:38:00,
2013-04-25 16:40:00,78.3,31.3,29.97,NNE,22,0.0,0.0,18,0.00,,---,0.00,VWS V14.01,2013-04-25 14:40:00,
2013-04-25 16:41:00,78.3,31.3,29.94,North,0,0.0,0.0,18,0.00,,---,0.00,VWS V14.01,2013-04-25 14:41:00,
2013-04-25 16:43:00,78.3,31.3,29.94,ENE,68,0.0,0.0,18,0.00,,---,0.00,VWS V14.01,2013-04-25 14:43:00,
2013-04-25 16:44:00,78.3,31.3,29.94,West,270,0.0,0.0,18,0.00,,---,0.00,VWS V14.01,2013-04-25 14:44:00,
2013-04-25 16:46:00,78.3,31.3,29.94,NNW,338,0.0,0.0,18,0.00,,---,0.00,VWS V14.01,2013-04-25 14:46:00,
2013-04-25 16:47:00,78.3,31.3,29.94,NNE,22,0.0,0.0,18,0.00,,---,0.00,VWS V14.01,2013-04-25 14:47:00,
2013-04-25 16:48:00,78.1,31.2,29.94,NNW,338,0.0,0.0,18,0.00,,---,0.00,VWS V14.01,2013-04-25 14:48:00,
2013-04-25 16:51:00,78.3,31.3,29.94,NNW,338,0.0,0.0,18,0.00,,---,0.00,VWS V14.01,2013-04-25 14:51:00,
2013-04-25 16:54:00,78.3,31.3,29.94,NNW,338,0.0,0.0,18,0.00,,---,0.00,VWS V14.01,2013-04-25 14:54:00,
2013-04-25 16:55:00,78.3,31.3,29.94,ENE,68,0.0,0.0,18,0.00,,---,0.00,VWS V14.01,2013-04-25 14:55:00,
2013-04-25 16:56:00,78.4,31.5,29.94,ENE,68,0.0,0.0,18,0.00,,---,0.00,VWS V14.01,2013-04-25 14:56:00,
2013-04-25 16:59:00,78.6,31.6,29.94,ENE,68,0.0,0.0,18,0.00,,---,0.00,VWS V14.01,2013-04-25 14:59:00,
2013-04-25 17:00:00,78.6,31.6,29.94,ENE,68,0.0,0.0,18,0.00,,---,0.00,VWS V14.01,2013-04-25 15:00:00,
2013-04-25 17:01:00,78.6,31.6,29.94,NE,45,0.0,0.0,18,0.00,,---,0.00,VWS V14.01,2013-04-25 15:01:00,
2013-04-25 17:05:00,78.8,30.4,29.94,East,90,0.0,0.0,17,0.00,,---,0.00,VWS V14.01,2013-04-25 15:05:00,
2013-04-25 17:06:00,78.8,30.4,29.94,North,0,0.0,0.0,17,0.00,,---,0.00,VWS V14.01,2013-04-25 15:06:00,
2013-04-25 17:07:00,78.8,30.4,29.94,North,0,0.0,0.0,17,0.00,,---,0.00,VWS V14.01,2013-04-25 15:07:00,
2013-04-25 17:10:00,79.0,30.5,29.94,NNE,22,0.0,0.0,17,0.00,,---,0.00,VWS V14.01,2013-04-25 15:10:00,
2013-04-25 17:11:00,78.8,30.4,29.94,NNW,338,0.0,0.0,17,0.00,,---,0.00,VWS V14.01,2013-04-25 15:11:00,
2013-04-25 17:12:00,78.6,31.6,29.94,NNW,338,0.0,0.0,18,0.00,,---,0.00,VWS V14.01,2013-04-25 15:12:00,
2013-04-25 17:13:00,78.3,31.3,29.94,NNW,338,0.0,0.0,18,0.00,,---,0.00,VWS V14.01,2013-04-25 15:13:00,
2013-04-25 17:16:00,77.4,30.6,29.94,North,0,0.0,0.0,18,0.00,,---,0.00,VWS V14.01,2013-04-25 15:16:00,
2013-04-25 17:19:00,77.0,25.9,29.94,ENE,68,0.0,0.0,15,0.00,,---,0.00,VWS V14.01,2013-04-25 15:19:00,
2013-04-25 17:20:00,77.0,25.9,29.94,ENE,68,0.0,0.0,15,0.00,,---,0.00,VWS V14.01,2013-04-25 15:20:00,
2013-04-25 17:21:00,76.8,25.7,29.94,North,0,0.0,0.0,15,0.00,,---,0.00,VWS V14.01,2013-04-25 15:21:00,
2013-04-25 17:23:00,76.6,25.6,29.94,ENE,68,0.0,0.9,15,0.00,,---,0.00,VWS V14.01,2013-04-25 15:23:00,
2013-04-25 17:25:00,76.5,29.9,29.94,NNW,338,0.0,0.0,18,0.00,,---,0.00,VWS V14.01,2013-04-25 15:25:00,
2013-04-25 17:28:00,76.3,29.7,29.94,NNW,338,0.0,0.0,18,0.00,,---,0.00,VWS V14.01,2013-04-25 15:28:00,
2013-04-25 17:30:00,76.1,29.6,29.94,NNW,338,0.0,0.0,18,0.00,,---,0.00,VWS V14.01,2013-04-25 15:30:00,
2013-04-25 17:31:00,76.1,29.6,29.94,North,0,0.0,0.0,18,0.00,,---,0.00,VWS V14.01,2013-04-25 15:31:00,
2013-04-25 17:34:00,75.9,29.4,29.94,NNW,338,0.0,0.0,18,0.00,,---,0.00,VWS V14.01,2013-04-25 15:34:00,
2013-04-25 17:35:00,75.9,29.4,29.94,NNE,22,0.0,0.0,18,0.00,,---,0.00,VWS V14.01,2013-04-25 15:35:00,
2013-04-25 17:36:00,75.7,29.3,29.94,NNW,338,0.0,0.0,18,0.00,,---,0.00,VWS V14.01,2013-04-25 15:36:00,
2013-04-25 17:37:00,75.6,29.1,29.94,NNW,338,0.0,0.0,18,0.00,,---,0.00,VWS V14.01,2013-04-25 15:37:00,
2013-04-25 17:38:00,75.6,29.1,29.94,NNW,338,0.0,0.0,18,0.00,,---,0.00,VWS V14.01,2013-04-25 15:38:00,
2013-04-25 17:39:00,75.6,29.1,29.94,NNE,22,0.0,0.0,18,0.00,,---,0.00,VWS V14.01,2013-04-25 15:39:00,
2013-04-25 17:42:00,75.4,29.0,29.94,NNW,338,0.0,0.0,18,0.00,,---,0.00,VWS V14.01,2013-04-25 15:42:00,
2013-04-25 17:43:00,75.4,29.0,29.94,NE,45,0.0,0.0,18,0.00,,---,0.00,VWS V14.01,2013-04-25 15:43:00,
2013-04-25 17:47:00,75.0,28.7,29.94,NNE,22,0.0,0.0,18,0.00,,---,0.00,VWS V14.01,2013-04-25 15:47:00,
2013-04-25 17:48:00,75.0,28.7,29.94,NNE,22,0.0,0.0,18,0.00,,---,0.00,VWS V14.01,2013-04-25 15:48:00,
2013-04-25 17:49:00,75.0,28.7,29.94,NNW,338,0.0,0.0,18,0.00,,---,0.00,VWS V14.01,2013-04-25 15:49:00,
2013-04-25 17:54:00,74.5,28.2,29.94,ENE,68,0.0,0.0,18,0.00,,---,0.00,VWS V14.01,2013-04-25 15:54:00,
2013-04-25 17:55:00,74.5,28.2,29.94,East,90,0.0,0.0,18,0.00,,---,0.00,VWS V14.01,2013-04-25 15:55:00,
2013-04-25 17:57:00,74.5,28.2,29.94,ENE,68,0.0,0.0,18,0.00,,---,0.00,VWS V14.01,2013-04-25 15:57:00,
2013-04-25 17:59:00,74.5,28.2,29.94,NNE,22,0.0,0.0,18,0.00,,---,0.00,VWS V14.01,2013-04-25 15:59:00,
2013-04-25 18:00:00,74.3,28.1,29.94,ENE,68,0.0,0.0,18,0.00,,---,0.00,VWS V14.01,2013-04-25 16:00:00,
2013-04-25 18:01:00,74.3,28.1,29.94,East,90,0.0,0.0,18,0.00,,---,0.00,VWS V14.01,2013-04-25 16:01:00,
2013-04-25 18:02:00,74.3,28.1,29.94,NNE,22,0.0,0.0,18,0.00,,---,0.00,VWS V14.01,2013-04-25 16:02:00,
2013-04-25 18:07:00,74.3,28.1,29.94,NNE,22,0.0,0.0,18,0.00,,---,0.00,VWS V14.01,2013-04-25 16:07:00,
2013-04-25 18:09:00,74.1,27.9,29.94,NNE,22,0.0,0.0,18,0.00,,---,0.00,VWS V14.01,2013-04-25 16:09:00,
2013-04-25 18:12:00,74.1,27.9,29.94,ENE,68,0.0,0.0,18,0.00,,---,0.00,VWS V14.01,2013-04-25 16:12:00,
2013-04-25 18:14:00,74.1,27.9,29.94,East,90,0.0,0.0,18,0.00,,---,0.00,VWS V14.01,2013-04-25 16:14:00,
2013-04-25 18:15:00,74.1,27.9,29.94,East,90,0.0,0.0,18,0.00,,---,0.00,VWS V14.01,2013-04-25 16:15:00,
2013-04-25 18:16:00,74.1,27.9,29.94,ENE,68,0.0,0.0,18,0.00,,---,0.00,VWS V14.01,2013-04-25 16:16:00,
2013-04-25 18:18:00,73.9,27.8,29.94,NNE,22,0.0,0.0,18,0.00,,---,0.00,VWS V14.01,2013-04-25 16:18:00,
2013-04-25 18:22:00,74.1,27.9,29.94,ENE,68,0.0,0.0,18,0.00,,---,0.00,VWS V14.01,2013-04-25 16:22:00,
2013-04-25 18:23:00,74.1,27.9,29.94,ENE,68,0.0,0.0,18,0.00,,---,0.00,VWS V14.01,2013-04-25 16:23:00,
2013-04-25 18:24:00,74.1,27.9,29.94,ESE,112,0.0,0.0,18,0.00,,---,0.00,VWS V14.01,2013-04-25 16:24:00,
2013-04-25 18:28:00,74.1,27.9,29.94,ENE,68,0.0,0.0,18,0.00,,---,0.00,VWS V14.01,2013-04-25 16:28:00,
2013-04-25 18:29:00,73.9,27.8,29.94,ENE,68,0.0,0.0,18,0.00,,---,0.00,VWS V14.01,2013-04-25 16:29:00,
2013-04-25 18:31:00,73.9,27.8,29.94,NE,45,0.0,0.0,18,0.00,,---,0.00,VWS V14.01,2013-04-25 16:31:00,
2013-04-25 18:34:00,73.8,27.6,29.94,ENE,68,0.0,0.0,18,0.00,,---,0.00,VWS V14.01,2013-04-25 16:34:00,
2013-04-25 18:35:00,73.8,27.6,29.94,NW,315,0.0,0.0,18,0.00,,---,0.00,VWS V14.01,2013-04-25 16:35:00,
2013-04-25 18:37:00,73.6,27.5,29.94,NNW,338,0.0,0.0,18,0.00,,---,0.00,VWS V14.01,2013-04-25 16:37:00,
2013-04-25 18:39:00,73.6,27.5,29.94,NE,45,0.0,0.0,18,0.00,,---,0.00,VWS V14.01,2013-04-25 16:39:00,
2013-04-25 18:40:00,73.4,27.4,29.94,ENE,68,0.0,0.0,18,0.00,,---,0.00,VWS V14.01,2013-04-25 16:40:00,
2013-04-25 18:42:00,73.4,27.4,29.94,NE,45,0.0,0.0,18,0.00,,---,0.00,VWS V14.01,2013-04-25 16:42:00,
2013-04-25 18:45:00,73.4,27.4,29.94,ENE,68,0.0,0.0,18,0.00,,---,0.00,VWS V14.01,2013-04-25 16:45:00,
2013-04-25 18:46:00,73.4,27.4,29.94,ENE,68,0.0,0.0,18,0.00,,---,0.00,VWS V14.01,2013-04-25 16:46:00,
2013-04-25 18:47:00,73.4,27.4,29.94,NNE,22,0.0,0.0,18,0.00,,---,0.00,VWS V14.01,2013-04-25 16:47:00,
2013-04-25 18:48:00,73.4,27.4,29.94,NE,45,0.0,0.0,18,0.00,,---,0.00,VWS V14.01,2013-04-25 16:48:00,
2013-04-25 18:50:00,73.4,27.4,29.94,ENE,68,0.0,0.0,18,0.00,,---,0.00,VWS V14.01,2013-04-25 16:50:00,
2013-04-25 18:52:00,73.4,27.4,29.94,ENE,68,0.0,0.0,18,0.00,,---,0.00,VWS V14.01,2013-04-25 16:52:00,
2013-04-25 18:53:00,73.4,27.4,29.94,NNE,22,0.0,0.0,18,0.00,,---,0.00,VWS V14.01,2013-04-25 16:53:00,
2013-04-25 18:57:00,73.4,27.4,29.94,NNE,22,0.0,0.0,18,0.00,,---,0.00,VWS V14.01,2013-04-25 16:57:00,
2013-04-25 19:01:00,73.4,27.4,29.94,ENE,68,0.0,0.0,18,0.00,,---,0.00,VWS V14.01,2013-04-25 17:01:00,
2013-04-25 19:02:00,73.4,27.4,29.94,ENE,68,0.0,0.0,18,0.00,,---,0.00,VWS V14.01,2013-04-25 17:02:00,
2013-04-25 19:03:00,73.4,27.4,29.94,NE,45,0.0,0.0,18,0.00,,---,0.00,VWS V14.01,2013-04-25 17:03:00,
2013-04-25 19:05:00,73.4,27.4,29.94,NNE,22,0.0,0.0,18,0.00,,---,0.00,VWS V14.01,2013-04-25 17:05:00,
2013-04-25 19:07:00,73.4,27.4,29.94,NNE,22,0.0,0.0,18,0.00,,---,0.00,VWS V14.01,2013-04-25 17:07:00,
2013-04-25 19:09:00,73.0,30.8,29.94,NNE,22,0.0,0.0,21,0.00,,---,0.00,VWS V14.01,2013-04-25 17:09:00,
2013-04-25 19:11:00,72.9,30.7,29.94,NNW,338,0.0,0.0,21,0.00,,---,0.00,VWS V14.01,2013-04-25 17:11:00,
2013-04-25 19:12:00,72.9,30.7,29.94,North,0,0.0,0.0,21,0.00,,---,0.00,VWS V14.01,2013-04-25 17:12:00,
2013-04-25 19:14:00,72.3,30.2,29.94,NNW,338,0.0,0.0,21,0.00,,---,0.00,VWS V14.01,2013-04-25 17:14:00,
2013-04-25 19:17:00,71.8,30.9,29.94,NNW,338,0.0,0.0,22,0.00,,---,0.00,VWS V14.01,2013-04-25 17:17:00,
2013-04-25 19:18:00,71.6,30.8,29.94,NNE,22,0.0,0.0,22,0.00,,---,0.00,VWS V14.01,2013-04-25 17:18:00,
2013-04-25 19:19:00,71.4,30.6,29.94,NNW,338,0.0,0.0,22,0.00,,---,0.00,VWS V14.01,2013-04-25 17:19:00,
2013-04-25 19:24:00,71.4,30.6,29.94,ENE,68,0.0,0.0,22,0.00,,---,0.00,VWS V14.01,2013-04-25 17:24:00,
2013-04-25 19:25:00,71.4,30.6,29.94,North,0,0.0,0.0,22,0.00,,---,0.00,VWS V14.01,2013-04-25 17:25:00,
2013-04-25 19:26:00,71.6,30.8,29.94,North,0,0.0,0.0,22,0.00,,---,0.00,VWS V14.01,2013-04-25 17:26:00,
2013-04-25 19:27:00,71.6,30.8,29.94,NNW,338,0.0,0.0,22,0.00,,---,0.00,VWS V14.01,2013-04-25 17:27:00,
2013-04-25 19:32:00,71.1,30.3,29.94,NNE,22,0.0,0.0,22,0.00,,---,0.00,VWS V14.01,2013-04-25 17:32:00,
2013-04-25 19:33:00,70.9,31.3,29.94,NNW,338,0.0,0.0,23,0.00,,---,0.00,VWS V14.01,2013-04-25 17:33:00,
2013-04-25 19:37:00,70.5,31.0,29.94,North,0,0.0,0.0,23,0.00,,---,0.00,VWS V14.01,2013-04-25 17:37:00,
2013-04-25 19:38:00,70.5,31.0,29.94,NNW,338,0.0,0.0,23,0.00,,---,0.00,VWS V14.01,2013-04-25 17:38:00,
2013-04-25 19:39:00,70.5,31.0,29.94,NNW,338,0.0,0.0,23,0.00,,---,0.00,VWS V14.01,2013-04-25 17:39:00,
2013-04-25 19:44:00,70.3,30.8,29.94,NNW,338,0.0,0.0,23,0.00,,---,0.00,VWS V14.01,2013-04-25 17:44:00,
2013-04-25 19:45:00,70.3,30.8,29.94,NNW,338,0.0,0.0,23,0.00,,---,0.00,VWS V14.01,2013-04-25 17:45:00,
2013-04-25 19:47:00,70.2,30.7,29.94,North,0,0.0,0.0,23,0.00,,---,0.00,VWS V14.01,2013-04-25 17:47:00,
2013-04-25 19:51:00,70.2,30.7,29.94,NNW,338,0.0,0.0,23,0.00,,---,0.00,VWS V14.01,2013-04-25 17:51:00,
2013-04-25 19:54:00,70.2,30.7,29.94,NNW,338,0.0,0.0,23,0.00,,---,0.00,VWS V14.01,2013-04-25 17:54:00,
2013-04-25 19:55:00,70.0,30.5,29.94,NNW,338,0.0,0.0,23,0.00,,---,0.00,VWS V14.01,2013-04-25 17:55:00,
2013-04-25 19:57:00,70.0,30.5,29.94,NNW,338,0.0,0.0,23,0.00,,---,0.00,VWS V14.01,2013-04-25 17:57:00,
2013-04-25 20:00:00,69.8,30.4,29.94,NNW,338,0.0,0.0,23,0.00,,---,0.00,VWS V14.01,2013-04-25 18:00:00,
2013-04-25 20:01:00,69.8,30.4,29.94,NNW,338,0.0,0.0,23,0.00,,---,0.00,VWS V14.01,2013-04-25 18:01:00,
2013-04-25 20:02:00,69.8,30.4,29.94,NNW,338,0.0,0.0,23,0.00,,---,0.00,VWS V14.01,2013-04-25 18:02:00,
2013-04-25 20:03:00,69.6,30.2,29.94,WNW,292,0.0,0.0,23,0.00,,---,0.00,VWS V14.01,2013-04-25 18:03:00,
2013-04-25 20:05:00,69.6,30.2,29.94,NNW,338,0.0,0.0,23,0.00,,---,0.00,VWS V14.01,2013-04-25 18:05:00,
2013-04-25 20:08:00,69.6,30.2,29.94,NNW,338,0.0,0.0,23,0.00,,---,0.00,VWS V14.01,2013-04-25 18:08:00,
2013-04-25 20:09:00,69.6,30.2,29.94,NNW,338,0.0,0.0,23,0.00,,---,0.00,VWS V14.01,2013-04-25 18:09:00,
2013-04-25 20:10:00,69.6,31.3,29.94,NNW,338,0.0,0.0,24,0.00,,---,0.00,VWS V14.01,2013-04-25 18:10:00,
2013-04-25 20:11:00,69.6,31.3,29.97,NNW,338,0.0,0.0,24,0.00,,---,0.00,VWS V14.01,2013-04-25 18:11:00,
2013-04-25 20:14:00,69.4,31.1,29.97,NW,315,0.0,0.0,24,0.00,,---,0.00,VWS V14.01,2013-04-25 18:14:00,
2013-04-25 20:15:00,69.4,31.1,29.97,NNW,338,0.0,0.0,24,0.00,,---,0.00,VWS V14.01,2013-04-25 18:15:00,
2013-04-25 20:17:00,69.3,31.0,29.97,NNW,338,0.0,0.0,24,0.00,,---,0.00,VWS V14.01,2013-04-25 18:17:00,
2013-04-25 20:20:00,69.3,31.0,29.97,NNW,338,0.0,0.0,24,0.00,,---,0.00,VWS V14.01,2013-04-25 18:20:00,
2013-04-25 20:21:00,69.3,31.0,29.97,NNW,338,0.0,0.0,24,0.00,,---,0.00,VWS V14.01,2013-04-25 18:21:00,
2013-04-25 20:23:00,69.3,31.0,29.97,NNW,338,0.0,0.0,24,0.00,,---,0.00,VWS V14.01,2013-04-25 18:23:00,
2013-04-25 20:25:00,69.6,31.3,29.97,NNW,338,0.0,0.0,24,0.00,,---,0.00,VWS V14.01,2013-04-25 18:25:00,
2013-04-25 20:29:00,70.0,30.5,29.97,NNW,338,0.0,0.0,23,0.00,,---,0.00,VWS V14.01,2013-04-25 18:29:00,
2013-04-25 20:30:00,70.2,30.7,29.97,NW,315,0.0,0.0,23,0.00,,---,0.00,VWS V14.01,2013-04-25 18:30:00,
2013-04-25 20:32:00,70.2,30.7,29.97,NNW,338,0.0,0.0,23,0.00,,---,0.00,VWS V14.01,2013-04-25 18:32:00,
2013-04-25 20:33:00,70.2,30.7,29.97,NNW,338,0.0,0.0,23,0.00,,---,0.00,VWS V14.01,2013-04-25 18:33:00,
2013-04-25 20:37:00,70.3,30.8,29.97,NNW,338,0.0,0.0,23,0.00,,---,0.00,VWS V14.01,2013-04-25 18:37:00,
2013-04-25 20:38:00,70.5,31.0,29.97,NNW,338,0.0,0.0,23,0.00,,---,0.00,VWS V14.01,2013-04-25 18:38:00,
2013-04-25 20:39:00,70.9,31.3,29.97,NNW,338,0.0,0.0,23,0.00,,---,0.00,VWS V14.01,2013-04-25 18:39:00,
2013-04-25 20:40:00,70.9,31.3,29.97,North,0,0.0,0.0,23,0.00,,---,0.00,VWS V14.01,2013-04-25 18:40:00,
2013-04-25 20:44:00,71.2,31.6,29.94,NNW,338,0.0,0.0,23,0.00,,---,0.00,VWS V14.01,2013-04-25 18:44:00,
2013-04-25 20:45:00,71.2,31.6,29.94,North,0,0.0,0.0,23,0.00,,---,0.00,VWS V14.01,2013-04-25 18:45:00,
2013-04-25 20:46:00,72.1,31.2,29.94,NNW,338,0.0,0.0,22,0.00,,---,0.00,VWS V14.01,2013-04-25 18:46:00,
2013-04-25 20:48:00,72.3,31.4,29.94,NNW,338,0.0,0.0,22,0.00,,---,0.00,VWS V14.01,2013-04-25 18:48:00,
2013-04-25 20:50:00,72.1,31.2,29.94,NNW,338,0.0,0.0,22,0.00,,---,0.00,VWS V14.01,2013-04-25 18:50:00,
2013-04-25 20:51:00,72.0,31.1,29.94,NNW,338,0.0,0.0,22,0.00,,---,0.00,VWS V14.01,2013-04-25 18:51:00,
2013-04-25 20:53:00,72.0,31.1,29.94,WNW,292,0.0,0.0,22,0.00,,---,0.00,VWS V14.01,2013-04-25 18:53:00,
2013-04-25 20:54:00,71.8,30.9,29.94,WNW,292,0.0,0.0,22,0.00,,---,0.00,VWS V14.01,2013-04-25 18:54:00,
2013-04-25 20:58:00,71.6,30.8,29.97,WNW,292,0.0,0.0,22,0.00,,---,0.00,VWS V14.01,2013-04-25 18:58:00,
2013-04-25 21:00:00,71.8,30.9,29.97,WNW,292,0.0,0.0,22,0.00,,---,0.00,VWS V14.01,2013-04-25 19:00:00,
2013-04-25 21:02:00,72.0,31.1,29.97,NNW,338,0.0,0.0,22,0.00,,---,0.00,VWS V14.01,2013-04-25 19:02:00,
2013-04-25 21:04:00,72.1,31.2,29.97,NNW,338,0.0,0.0,22,0.00,,---,0.00,VWS V14.01,2013-04-25 19:04:00,
2013-04-25 21:07:00,72.7,31.7,29.97,NNE,22,0.0,0.0,22,0.00,,---,0.00,VWS V14.01,2013-04-25 19:07:00,
2013-04-25 21:08:00,72.7,31.7,29.97,North,0,0.0,0.0,22,0.00,,---,0.00,VWS V14.01,2013-04-25 19:08:00,
2013-04-25 21:10:00,72.9,31.8,29.97,ENE,68,0.0,0.0,22,0.00,,---,0.00,VWS V14.01,2013-04-25 19:10:00,
2013-04-25 21:11:00,73.6,31.3,29.94,ENE,68,0.0,0.0,21,0.00,,---,0.00,VWS V14.01,2013-04-25 19:11:00,
2013-04-25 21:12:00,73.8,31.4,29.94,ENE,68,0.0,0.0,21,0.00,,---,0.00,VWS V14.01,2013-04-25 19:12:00,
2013-04-25 21:14:00,73.9,31.6,29.94,NNE,22,0.0,0.0,21,0.00,,---,0.00,VWS V14.01,2013-04-25 19:14:00,
2013-04-25 21:15:00,73.9,31.6,29.94,NNE,22,0.0,0.0,21,0.00,,---,0.00,VWS V14.01,2013-04-25 19:15:00,
2013-04-25 21:17:00,74.7,32.2,29.94,NNE,22,0.0,0.0,21,0.00,,---,0.00,VWS V14.01,2013-04-25 19:17:00,
2013-04-25 21:18:00,74.7,32.2,29.94,NNE,22,0.0,0.0,21,0.00,,---,0.00,VWS V14.01,2013-04-25 19:18:00,
2013-04-25 21:19:00,74.7,32.2,29.94,ENE,68,0.0,0.0,21,0.00,,---,0.00,VWS V14.01,2013-04-25 19:19:00,
2013-04-25 21:20:00,74.7,32.2,29.94,NNE,22,0.0,0.0,21,0.00,,---,0.00,VWS V14.01,2013-04-25 19:20:00,
2013-04-25 21:22:00,74.8,32.3,29.94,North,0,0.0,0.0,21,0.00,,---,0.00,VWS V14.01,2013-04-25 19:22:00,
2013-04-25 21:25:00,74.8,32.3,29.94,NNW,338,0.0,0.0,21,0.00,,---,0.00,VWS V14.01,2013-04-25 19:25:00,
2013-04-25 21:26:00,74.7,32.2,29.94,NNW,338,0.0,0.0,21,0.00,,---,0.00,VWS V14.01,2013-04-25 19:26:00,
2013-04-25 21:28:00,74.7,32.2,29.94,NNW,338,0.0,0.0,21,0.00,,---,0.00,VWS V14.01,2013-04-25 19:28:00,
2013-04-25 21:30:00,74.5,32.0,29.94,NNW,338,0.0,0.0,21,0.00,,---,0.00,VWS V14.01,2013-04-25 19:30:00,
2013-04-25 21:34:00,74.7,32.2,29.94,North,0,0.0,0.0,21,0.00,,---,0.00,VWS V14.01,2013-04-25 19:34:00,
2013-04-25 21:35:00,74.7,32.2,29.94,NNE,22,0.0,0.0,21,0.00,,---,0.00,VWS V14.01,2013-04-25 19:35:00,
2013-04-25 21:37:00,74.8,32.3,29.94,NNE,22,0.0,0.0,21,0.00,,---,0.00,VWS V14.01,2013-04-25 19:37:00,
2013-04-25 21:38:00,75.0,32.5,29.94,NNW,338,0.0,0.0,21,0.00,,---,0.00,VWS V14.01,2013-04-25 19:38:00,
2013-04-25 21:39:00,75.0,32.5,29.94,NNW,338,0.0,0.0,21,0.00,,---,0.00,VWS V14.01,2013-04-25 19:39:00,
2013-04-25 21:41:00,75.0,32.5,29.97,NNW,338,0.0,0.0,21,0.00,,---,0.00,VWS V14.01,2013-04-25 19:41:00,
2013-04-25 21:43:00,75.2,31.4,29.97,NNW,338,0.0,0.0,20,0.00,,---,0.00,VWS V14.01,2013-04-25 19:43:00,
2013-04-25 21:44:00,75.2,31.4,29.97,NNW,338,0.0,0.0,20,0.00,,---,0.00,VWS V14.01,2013-04-25 19:44:00,
2013-04-25 21:47:00,75.0,32.5,29.97,NNW,338,0.0,0.0,21,0.00,,---,0.00,VWS V14.01,2013-04-25 19:47:00,
2013-04-25 21:48:00,75.0,32.5,29.97,NNW,338,0.0,0.0,21,0.00,,---,0.00,VWS V14.01,2013-04-25 19:48:00,
2013-04-25 21:50:00,74.8,32.3,29.97,NNW,338,0.0,0.0,21,0.00,,---,0.00,VWS V14.01,2013-04-25 19:50:00,
2013-04-25 21:52:00,74.8,32.3,29.97,NNW,338,0.0,0.0,21,0.00,,---,0.00,VWS V14.01,2013-04-25 19:52:00,
2013-04-25 21:53:00,74.8,32.3,29.97,NNW,338,0.0,0.0,21,0.00,,---,0.00,VWS V14.01,2013-04-25 19:53:00,
2013-04-25 21:54:00,74.7,32.2,29.97,NNW,338,0.0,0.0,21,0.00,,---,0.00,VWS V14.01,2013-04-25 19:54:00,
2013-04-25 21:57:00,74.7,32.2,29.94,NNW,338,0.0,0.0,21,0.00,,---,0.00,VWS V14.01,2013-04-25 19:57:00,
2013-04-25 21:58:00,74.7,32.2,29.94,NNW,338,0.0,0.0,21,0.00,,---,0.00,VWS V14.01,2013-04-25 19:58:00,
2013-04-25 22:01:00,74.3,31.9,29.94,NW,315,0.0,0.0,21,0.00,,---,0.00,VWS V14.01,2013-04-25 20:01:00,
2013-04-25 22:03:00,73.9,31.6,29.94,NW,315,0.0,0.0,21,0.00,,---,0.00,VWS V14.01,2013-04-25 20:03:00,
2013-04-25 22:07:00,73.6,31.3,29.94,NNW,338,0.0,0.0,21,0.00,,---,0.00,VWS V14.01,2013-04-25 20:07:00,
2013-04-25 22:08:00,73.6,31.3,29.94,NNW,338,0.0,0.0,21,0.00,,---,0.00,VWS V14.01,2013-04-25 20:08:00,
2013-04-25 22:11:00,73.2,32.1,29.94,NNW,338,0.0,0.0,22,0.00,,---,0.00,VWS V14.01,2013-04-25 20:11:00,
2013-04-25 22:12:00,73.2,32.1,29.94,NW,315,0.0,0.0,22,0.00,,---,0.00,VWS V14.01,2013-04-25 20:12:00,
2013-04-25 22:15:00,73.0,32.0,29.94,WNW,292,0.0,0.0,22,0.00,,---,0.00,VWS V14.01,2013-04-25 20:15:00,
2013-04-25 22:16:00,73.0,32.0,29.94,WNW,292,0.0,0.0,22,0.00,,---,0.00,VWS V14.01,2013-04-25 20:16:00,
2013-04-25 22:20:00,72.9,31.8,29.94,NNW,338,0.0,0.0,22,0.00,,---,0.00,VWS V14.01,2013-04-25 20:20:00,
2013-04-25 22:21:00,72.9,31.8,29.94,WNW,292,0.0,0.0,22,0.00,,---,0.00,VWS V14.01,2013-04-25 20:21:00,
2013-04-25 22:22:00,72.9,31.8,29.94,WNW,292,0.0,0.0,22,0.00,,---,0.00,VWS V14.01,2013-04-25 20:22:00,
2013-04-25 22:24:00,72.7,31.7,29.94,NNW,338,0.0,0.0,22,0.00,,---,0.00,VWS V14.01,2013-04-25 20:24:00,
2013-04-25 22:25:00,72.5,31.5,29.94,WNW,292,0.0,0.0,22,0.00,,---,0.00,VWS V14.01,2013-04-25 20:25:00,
2013-04-25 22:28:00,72.3,31.4,29.94,WNW,292,0.0,0.0,22,0.00,,---,0.00,VWS V14.01,2013-04-25 20:28:00,
2013-04-25 22:30:00,72.5,31.5,29.94,NW,315,0.0,0.0,22,0.00,,---,0.00,VWS V14.01,2013-04-25 20:30:00,
2013-04-25 22:33:00,72.5,31.5,29.94,NNW,338,0.0,0.0,22,0.00,,---,0.00,VWS V14.01,2013-04-25 20:33:00,
2013-04-25 22:35:00,72.5,31.5,29.94,WNW,292,0.0,0.0,22,0.00,,---,0.00,VWS V14.01,2013-04-25 20:35:00,
2013-04-25 22:36:00,72.5,31.5,29.94,NW,315,0.0,0.0,22,0.00,,---,0.00,VWS V14.01,2013-04-25 20:36:00,
2013-04-25 22:39:00,72.3,31.4,29.94,NNW,338,0.0,0.0,22,0.00,,---,0.00,VWS V14.01,2013-04-25 20:39:00,
2013-04-25 22:41:00,72.3,31.4,29.94,NNW,338,0.0,0.0,22,0.00,,---,0.00,VWS V14.01,2013-04-25 20:41:00,
2013-04-25 22:43:00,72.5,31.5,29.94,NNW,338,0.0,0.0,22,0.00,,---,0.00,VWS V14.01,2013-04-25 20:43:00,
2013-04-25 22:45:00,72.5,31.5,29.94,NW,315,0.0,0.0,22,0.00,,---,0.00,VWS V14.01,2013-04-25 20:45:00,
2013-04-25 22:46:00,72.5,31.5,29.94,NNW,338,0.0,0.0,22,0.00,,---,0.00,VWS V14.01,2013-04-25 20:46:00,
2013-04-25 22:47:00,72.5,31.5,29.94,NNW,338,0.0,0.0,22,0.00,,---,0.00,VWS V14.01,2013-04-25 20:47:00,
2013-04-25 22:51:00,72.9,31.8,29.94,NNW,338,0.0,0.0,22,0.00,,---,0.00,VWS V14.01,2013-04-25 20:51:00,
2013-04-25 22:52:00,73.0,32.0,29.94,NNW,338,0.0,0.0,22,0.00,,---,0.00,VWS V14.01,2013-04-25 20:52:00,
2013-04-25 22:53:00,73.2,32.1,29.94,NNW,338,0.0,0.0,22,0.00,,---,0.00,VWS V14.01,2013-04-25 20:53:00,
2013-04-25 22:54:00,73.4,31.1,29.94,NNW,338,0.0,0.0,21,0.00,,---,0.00,VWS V14.01,2013-04-25 20:54:00,
2013-04-25 22:58:00,73.8,31.4,29.94,NNW,338,0.0,0.0,21,0.00,,---,0.00,VWS V14.01,2013-04-25 20:58:00,
2013-04-25 22:59:00,73.8,31.4,29.94,NNW,338,0.0,0.0,21,0.00,,---,0.00,VWS V14.01,2013-04-25 20:59:00,
2013-04-25 23:00:00,73.9,31.6,29.94,North,0,0.0,0.0,21,0.00,,---,0.00,VWS V14.01,2013-04-25 21:00:00,
2013-04-25 23:01:00,74.1,31.7,29.94,North,0,0.0,0.0,21,0.00,,---,0.00,VWS V14.01,2013-04-25 21:01:00,
2013-04-25 23:04:00,74.5,32.0,29.94,NNW,338,0.0,0.0,21,0.00,,---,0.00,VWS V14.01,2013-04-25 21:04:00,
2013-04-25 23:05:00,74.7,32.2,29.94,NNW,338,0.0,0.0,21,0.00,,---,0.00,VWS V14.01,2013-04-25 21:05:00,
2013-04-25 23:06:00,74.8,32.3,29.94,North,0,0.0,0.0,21,0.00,,---,0.00,VWS V14.01,2013-04-25 21:06:00,
2013-04-25 23:10:00,75.2,31.4,29.94,NNW,338,0.0,0.0,20,0.00,,---,0.00,VWS V14.01,2013-04-25 21:10:00,
2013-04-25 23:11:00,75.4,31.6,29.94,NNW,338,0.0,0.0,20,0.00,,---,0.00,VWS V14.01,2013-04-25 21:11:00,
2013-04-25 23:12:00,75.2,31.4,29.94,NNW,338,0.0,0.0,20,0.00,,---,0.00,VWS V14.01,2013-04-25 21:12:00,
2013-04-25 23:15:00,74.8,32.3,29.94,NNW,338,0.0,0.0,21,0.00,,---,0.00,VWS V14.01,2013-04-25 21:15:00,
2013-04-25 23:19:00,74.7,32.2,29.94,NNW,338,0.0,0.0,21,0.00,,---,0.00,VWS V14.01,2013-04-25 21:19:00,
2013-04-25 23:20:00,74.5,32.0,29.94,NNW,338,0.0,0.0,21,0.00,,---,0.00,VWS V14.01,2013-04-25 21:20:00,
2013-04-25 23:21:00,74.3,31.9,29.94,NNW,338,0.0,0.0,21,0.00,,---,0.00,VWS V14.01,2013-04-25 21:21:00,
2013-04-25 23:23:00,74.1,31.7,29.94,NNW,338,0.0,0.0,21,0.00,,---,0.00,VWS V14.01,2013-04-25 21:23:00,
2013-04-25 23:25:00,74.1,31.7,29.94,NNW,338,0.0,0.0,21,0.00,,---,0.00,VWS V14.01,2013-04-25 21:25:00,
2013-04-25 23:26:00,74.1,31.7,29.94,NNW,338,0.0,0.0,21,0.00,,---,0.00,VWS V14.01,2013-04-25 21:26:00,
2013-04-25 23:31:00,74.3,31.9,29.94,NNW,338,0.0,0.0,21,0.00,,---,0.00,VWS V14.01,2013-04-25 21:31:00,
2013-04-25 23:32:00,74.3,31.9,29.94,NNW,338,0.0,0.0,21,0.00,,---,0.00,VWS V14.01,2013-04-25 21:32:00,
2013-04-25 23:34:00,74.3,31.9,29.94,NNW,338,0.0,0.0,21,0.00,,---,0.00,VWS V14.01,2013-04-25 21:34:00,
2013-04-25 23:36:00,74.5,32.0,29.94,NNW,338,0.0,0.0,21,0.00,,---,0.00,VWS V14.01,2013-04-25 21:36:00,
2013-04-25 23:38:00,74.5,32.0,29.94,NNW,338,0.0,0.0,21,0.00,,---,0.00,VWS V14.01,2013-04-25 21:38:00,
2013-04-25 23:39:00,74.5,32.0,29.94,NNW,338,0.0,0.0,21,0.00,,---,0.00,VWS V14.01,2013-04-25 21:39:00,
2013-04-25 23:43:00,74.7,32.2,29.94,NNW,338,0.0,0.0,21,0.00,,---,0.00,VWS V14.01,2013-04-25 21:43:00,
2013-04-25 23:44:00,74.7,32.2,29.94,NNW,338,0.0,0.0,21,0.00,,---,0.00,VWS V14.01,2013-04-25 21:44:00,
2013-04-25 23:45:00,74.7,32.2,29.94,NNW,338,0.0,0.0,21,0.00,,---,0.00,VWS V14.01,2013-04-25 21:45:00,
2013-04-25 23:46:00,74.7,32.2,29.94,NNW,338,0.0,0.0,21,0.00,,---,0.00,VWS V14.01,2013-04-25 21:46:00,
2013-04-25 23:50:00,74.5,32.0,29.94,NNW,338,0.0,0.0,21,0.00,,---,0.00,VWS V14.01,2013-04-25 21:50:00,
2013-04-25 23:51:00,74.5,32.0,29.94,NNW,338,0.0,0.0,21,0.00,,---,0.00,VWS V14.01,2013-04-25 21:51:00,
2013-04-25 23:52:00,74.5,32.0,29.94,NNW,338,0.0,0.0,21,0.00,,---,0.00,VWS V14.01,2013-04-25 21:52:00,
2013-04-25 23:54:00,74.3,31.9,29.94,NNW,338,0.0,0.0,21,0.00,,---,0.00,VWS V14.01,2013-04-25 21:54:00,
2013-04-25 23:55:00,74.3,31.9,29.94,NNW,338,0.0,0.0,21,0.00,,---,0.00,VWS V14.01,2013-04-25 21:55:00,
2013-04-25 23:56:00,74.3,31.9,29.94,NNW,338,0.0,0.0,21,0.00,,---,0.00,VWS V14.01,2013-04-25 21:56:00,